| time (UTC) | temp C | wind direction | speed KPH | gust KPH | rain 1hr cm | rain 24hr cm | rain mn cm | humidity % | barometer mb |
| 20260505031659 | 18 | 0 | 0.0 | 16.1 | 0.00 | 0.00 | 0.00 | 47 | 1007.5 |
| 20260505031559 | 18 | 0 | 0.0 | 16.1 | 0.00 | 0.00 | 0.00 | 47 | 1007.5 |
| 20260505031520 | 18 | 360 | 0.0 | 16.1 | 0.00 | 0.00 | 0.00 | 47 | 1007.5 |
| 20260505031458 | 18 | 0 | 0.0 | 16.1 | 0.00 | 0.00 | 0.00 | 47 | 1007.5 |
| 20260505031357 | 18 | 0 | 0.0 | 6.4 | 0.00 | 0.00 | 0.00 | 47 | 1007.5 |
| 20260505031317 | 18 | 0 | 0.0 | 6.4 | 0.00 | 0.00 | 0.00 | 47 | 1007.5 |
| 20260505031256 | 18 | 0 | 0.0 | 6.4 | 0.00 | 0.00 | 0.00 | 47 | 1007.6 |
| 20260505031156 | 18 | 0 | 0.0 | 6.4 | 0.00 | 0.00 | 0.00 | 47 | 1007.6 |
| 20260505031055 | 18 | 0 | 0.0 | 6.4 | 0.00 | 0.00 | 0.00 | 47 | 1007.6 |
| 20260505031020 | 18 | 360 | 0.0 | 9.7 | 0.00 | 0.00 | 0.00 | 46 | 1007.5 |
| 20260505030952 | 18 | 0 | 0.0 | 9.7 | 0.00 | 0.00 | 0.00 | 47 | 1007.5 |
| 20260505030852 | 18 | 0 | 0.0 | 9.7 | 0.00 | 0.00 | 0.00 | 46 | 1007.5 |
| 20260505030821 | 18 | 0 | 0.0 | 9.7 | 0.00 | 0.00 | 0.00 | 46 | 1007.5 |
| 20260505030814 | 18 | 0 | 0.0 | 9.7 | 0.00 | 0.00 | 0.00 | 46 | 1007.6 |
| 20260505030701 | 18 | 0 | 0.0 | 9.7 | 0.00 | 0.00 | 0.00 | 46 | 1007.6 |
| 20260505030520 | 18 | 360 | 0.0 | 9.7 | 0.00 | 0.00 | 0.00 | 46 | 1007.5 |
| 20260505030452 | 18 | 0 | 0.0 | 9.7 | 0.00 | 0.00 | 0.00 | 46 | 1007.5 |
| 20260505030352 | 18 | 0 | 0.0 | 9.7 | 0.00 | 0.00 | 0.00 | 46 | 1007.5 |
| 20260505030317 | 18 | 0 | 0.0 | 9.7 | 0.00 | 0.00 | 0.00 | 46 | 1007.5 |
| 20260505030251 | 18 | 0 | 0.0 | 9.7 | 0.00 | 0.00 | 0.00 | 46 | 1007.5 |
| 20260505030151 | 18 | 0 | 0.0 | 9.7 | 0.00 | 0.00 | 0.00 | 46 | 1007.5 |
| 20260505030051 | 18 | 0 | 0.0 | 9.7 | 0.00 | 0.00 | 0.00 | 47 | 1007.5 |
| 20260505030020 | 18 | 360 | 1.6 | 6.4 | 0.00 | 0.00 | 0.00 | 47 | 1007.5 |
| 20260505025949 | 18 | 0 | 0.0 | 6.4 | 0.00 | 0.00 | 0.00 | 47 | 1007.5 |
| 20260505025848 | 18 | 0 | 0.0 | 6.4 | 0.00 | 0.00 | 0.00 | 46 | 1007.5 |
| 20260505025816 | 18 | 0 | 0.0 | 6.4 | 0.00 | 0.00 | 0.00 | 46 | 1007.5 |
| 20260505025810 | 18 | 0 | 0.0 | 6.4 | 0.00 | 0.00 | 0.00 | 46 | 1007.5 |
| 20260505025656 | 18 | 0 | 0.0 | 6.4 | 0.00 | 0.00 | 0.00 | 47 | 1007.5 |
| 20260505025520 | 18 | 360 | 4.8 | 8.0 | 0.00 | 0.00 | 0.00 | 47 | 1007.4 |
| 20260505025447 | 18 | 0 | 1.6 | 8.0 | 0.00 | 0.00 | 0.00 | 47 | 1007.4 |
| 20260505025347 | 18 | 0 | 1.6 | 16.1 | 0.00 | 0.00 | 0.00 | 46 | 1007.5 |
| 20260505025314 | 18 | 0 | 1.6 | 16.1 | 0.00 | 0.00 | 0.00 | 46 | 1007.5 |
| 20260505025246 | 18 | 0 | 1.6 | 16.1 | 0.00 | 0.00 | 0.00 | 46 | 1007.5 |
| 20260505025145 | 18 | 0 | 1.6 | 16.1 | 0.00 | 0.00 | 0.00 | 46 | 1007.5 |
| 20260505025044 | 18 | 0 | 1.6 | 16.1 | 0.00 | 0.00 | 0.00 | 46 | 1007.5 |
| 20260505025020 | 18 | 360 | 0.0 | 16.1 | 0.00 | 0.00 | 0.00 | 46 | 1007.5 |
| 20260505024942 | 18 | 0 | 1.6 | 16.1 | 0.00 | 0.00 | 0.00 | 46 | 1007.5 |
| 20260505024814 | 18 | 0 | 1.6 | 16.1 | 0.00 | 0.00 | 0.00 | 46 | 1007.6 |
| 20260505024743 | 18 | 0 | 1.6 | 16.1 | 0.00 | 0.00 | 0.00 | 46 | 1007.6 |
| 20260505024643 | 18 | 0 | 1.6 | 16.1 | 0.00 | 0.00 | 0.00 | 46 | 1007.6 |
| 20260505024540 | 18 | 0 | 1.6 | 16.1 | 0.00 | 0.00 | 0.00 | 46 | 1007.6 |
| 20260505024535 | 18 | 360 | 0.0 | 16.1 | 0.00 | 0.00 | 0.00 | 46 | 1007.6 |
| 20260505024440 | 18 | 0 | 1.6 | 16.1 | 0.00 | 0.00 | 0.00 | 46 | 1007.6 |
| 20260505024359 | 18 | 0 | 1.6 | 12.9 | 0.00 | 0.00 | 0.00 | 46 | 1007.7 |
| 20260505024347 | 18 | 0 | 1.6 | 12.9 | 0.00 | 0.00 | 0.00 | 46 | 1007.7 |
| 20260505024138 | 18 | 0 | 1.6 | 12.9 | 0.00 | 0.00 | 0.00 | 46 | 1007.7 |
| 20260505024051 | 18 | 0 | 1.6 | 12.9 | 0.00 | 0.00 | 0.00 | 46 | 1007.7 |
| 20260505024046 | 18 | 0 | 1.6 | 12.9 | 0.00 | 0.00 | 0.00 | 46 | 1007.8 |
| 20260505024021 | 18 | 360 | 0.0 | 12.9 | 0.00 | 0.00 | 0.00 | 46 | 1007.7 |
| 20260505023837 | 18 | 0 | 1.6 | 12.9 | 0.00 | 0.00 | 0.00 | 46 | 1007.8 |
| 20260505023814 | 18 | 0 | 0.0 | 12.9 | 0.00 | 0.00 | 0.00 | 46 | 1007.8 |
| 20260505023735 | 18 | 0 | 0.0 | 12.9 | 0.00 | 0.00 | 0.00 | 46 | 1007.8 |
| 20260505023635 | 18 | 0 | 0.0 | 12.9 | 0.00 | 0.00 | 0.00 | 46 | 1007.8 |
| 20260505023534 | 18 | 0 | 0.0 | 12.9 | 0.00 | 0.00 | 0.00 | 46 | 1007.8 |
| 20260505023520 | 18 | 360 | 8.0 | 12.9 | 0.00 | 0.00 | 0.00 | 46 | 1007.8 |
| 20260505023434 | 18 | 0 | 0.0 | 8.0 | 0.00 | 0.00 | 0.00 | 46 | 1007.8 |
| 20260505023353 | 18 | 0 | 0.0 | 9.7 | 0.00 | 0.00 | 0.00 | 46 | 1007.8 |
| 20260505023348 | 18 | 0 | 0.0 | 8.0 | 0.00 | 0.00 | 0.00 | 46 | 1007.8 |
| 20260505023341 | 18 | 0 | 0.0 | 9.7 | 0.00 | 0.00 | 0.00 | 46 | 1007.8 |
| 20260505023133 | 18 | 0 | 0.0 | 9.7 | 0.00 | 0.00 | 0.00 | 46 | 1007.8 |
| 20260505023100 | 18 | 0 | 0.0 | 9.7 | 0.00 | 0.00 | 0.00 | 46 | 1007.8 |
| 20260505023056 | 18 | 0 | 0.0 | 9.7 | 0.00 | 0.00 | 0.00 | 46 | 1007.8 |
| 20260505023051 | 18 | 0 | 0.0 | 9.7 | 0.00 | 0.00 | 0.00 | 46 | 1007.8 |
| 20260505023020 | 18 | 360 | 0.0 | 9.7 | 0.00 | 0.00 | 0.00 | 46 | 1007.8 |
| 20260505022810 | 18 | 0 | 0.0 | 9.7 | 0.00 | 0.00 | 0.00 | 46 | 1007.8 |
| 20260505022731 | 18 | 0 | 0.0 | 9.7 | 0.00 | 0.00 | 0.00 | 46 | 1007.8 |
| 20260505022630 | 18 | 0 | 0.0 | 9.7 | 0.00 | 0.00 | 0.00 | 46 | 1007.8 |
| 20260505022535 | 18 | 360 | 0.0 | 9.7 | 0.00 | 0.00 | 0.00 | 46 | 1007.9 |
| 20260505022530 | 18 | 0 | 0.0 | 9.7 | 0.00 | 0.00 | 0.00 | 46 | 1007.9 |
| 20260505022430 | 18 | 0 | 0.0 | 9.7 | 0.00 | 0.00 | 0.00 | 46 | 1007.9 |
| 20260505022329 | 18 | 0 | 0.0 | 9.7 | 0.00 | 0.00 | 0.00 | 46 | 1007.8 |
| 20260505022310 | 18 | 0 | 0.0 | 8.0 | 0.00 | 0.00 | 0.00 | 46 | 1007.9 |
| 20260505022229 | 18 | 0 | 0.0 | 8.0 | 0.00 | 0.00 | 0.00 | 46 | 1007.9 |
| 20260505022127 | 18 | 0 | 0.0 | 8.0 | 0.00 | 0.00 | 0.00 | 46 | 1007.8 |
| 20260505022027 | 18 | 0 | 0.0 | 8.0 | 0.00 | 0.00 | 0.00 | 46 | 1007.9 |
| 20260505022020 | 18 | 360 | 0.0 | 8.0 | 0.00 | 0.00 | 0.00 | 46 | 1007.8 |
| 20260505021943 | 18 | 0 | 0.0 | 9.7 | 0.00 | 0.00 | 0.00 | 46 | 1007.9 |
| 20260505021937 | 18 | 0 | 0.0 | 8.0 | 0.00 | 0.00 | 0.00 | 46 | 1007.8 |
| 20260505021809 | 18 | 0 | 0.0 | 9.7 | 0.00 | 0.00 | 0.00 | 46 | 1007.9 |
| 20260505021741 | 18 | 0 | 0.0 | 9.7 | 0.00 | 0.00 | 0.00 | 46 | 1007.9 |
| 20260505021736 | 18 | 0 | 0.0 | 9.7 | 0.00 | 0.00 | 0.00 | 46 | 1007.9 |
| 20260505021525 | 18 | 0 | 0.0 | 9.7 | 0.00 | 0.00 | 0.00 | 46 | 1007.9 |
| 20260505021520 | 18 | 360 | 0.0 | 9.7 | 0.00 | 0.00 | 0.00 | 46 | 1007.9 |
| 20260505021425 | 18 | 0 | 0.0 | 9.7 | 0.00 | 0.00 | 0.00 | 47 | 1007.9 |
| 20260505021308 | 18 | 0 | 0.0 | 9.7 | 0.00 | 0.00 | 0.00 | 46 | 1007.9 |
| 20260505021222 | 18 | 0 | 0.0 | 9.7 | 0.00 | 0.00 | 0.00 | 46 | 1007.9 |
| 20260505021122 | 18 | 0 | 0.0 | 9.7 | 0.00 | 0.00 | 0.00 | 46 | 1007.9 |
| 20260505021050 | 18 | 360 | 0.0 | 14.5 | 0.00 | 0.00 | 0.00 | 46 | 1007.8 |
| 20260505021019 | 18 | 0 | 1.6 | 14.5 | 0.00 | 0.00 | 0.00 | 46 | 1007.9 |
| 20260505020920 | 18 | 0 | 1.6 | 14.5 | 0.00 | 0.00 | 0.00 | 46 | 1007.8 |
| 20260505020819 | 18 | 0 | 1.6 | 14.5 | 0.00 | 0.00 | 0.00 | 46 | 1007.9 |
| 20260505020809 | 18 | 0 | 0.0 | 14.5 | 0.00 | 0.00 | 0.00 | 46 | 1007.8 |
| 20260505020719 | 18 | 0 | 0.0 | 14.5 | 0.00 | 0.00 | 0.00 | 46 | 1007.8 |
| 20260505020618 | 18 | 0 | 0.0 | 14.5 | 0.00 | 0.00 | 0.00 | 46 | 1007.9 |
| 20260505020535 | 18 | 360 | 0.0 | 14.5 | 0.00 | 0.00 | 0.00 | 46 | 1007.9 |
| 20260505020531 | 18 | 0 | 0.0 | 14.5 | 0.00 | 0.00 | 0.00 | 46 | 1007.9 |
| 20260505020526 | 18 | 0 | 0.0 | 14.5 | 0.00 | 0.00 | 0.00 | 46 | 1007.9 |
| 20260505020309 | 18 | 0 | 0.0 | 14.5 | 0.00 | 0.00 | 0.00 | 46 | 1007.9 |
| 20260505020215 | 18 | 0 | 0.0 | 14.5 | 0.00 | 0.00 | 0.00 | 46 | 1007.9 |
| 20260505020115 | 18 | 0 | 0.0 | 14.5 | 0.00 | 0.00 | 0.00 | 46 | 1007.9 |
| 20260505020020 | 18 | 360 | 0.0 | 1.6 | 0.00 | 0.00 | 0.00 | 46 | 1007.9 |
| 20260505020012 | 18 | 0 | 0.0 | 1.6 | 0.00 | 0.00 | 0.00 | 46 | 1007.9 |
| 20260505015929 | 18 | 0 | 0.0 | 3.2 | 0.00 | 0.00 | 0.00 | 46 | 1007.8 |
| 20260505015924 | 18 | 0 | 0.0 | 1.6 | 0.00 | 0.00 | 0.00 | 46 | 1007.9 |
| 20260505015808 | 18 | 0 | 0.0 | 3.2 | 0.00 | 0.00 | 0.00 | 46 | 1007.8 |
| 20260505015711 | 18 | 0 | 0.0 | 3.2 | 0.00 | 0.00 | 0.00 | 46 | 1007.9 |
| 20260505015611 | 18 | 0 | 0.0 | 3.2 | 0.00 | 0.00 | 0.00 | 46 | 1007.8 |
| 20260505015520 | 18 | 360 | 0.0 | 3.2 | 0.00 | 0.00 | 0.00 | 46 | 1007.8 |
| 20260505015511 | 18 | 0 | 0.0 | 3.2 | 0.00 | 0.00 | 0.00 | 46 | 1007.9 |
| 20260505015427 | 18 | 0 | 0.0 | 3.2 | 0.00 | 0.00 | 0.00 | 46 | 1007.8 |
| 20260505015422 | 18 | 0 | 0.0 | 3.2 | 0.00 | 0.00 | 0.00 | 46 | 1007.8 |
| 20260505015306 | 18 | 0 | 0.0 | 3.2 | 0.00 | 0.00 | 0.00 | 46 | 1007.8 |
| 20260505015224 | 18 | 0 | 0.0 | 9.7 | 0.00 | 0.00 | 0.00 | 45 | 1007.8 |
| 20260505015219 | 18 | 0 | 0.0 | 9.7 | 0.00 | 0.00 | 0.00 | 46 | 1007.8 |
| 20260505015020 | 18 | 360 | 1.6 | 9.7 | 0.00 | 0.00 | 0.00 | 45 | 1007.7 |
| 20260505015009 | 18 | 0 | 0.0 | 9.7 | 0.00 | 0.00 | 0.00 | 45 | 1007.8 |
| 20260505014908 | 18 | 0 | 0.0 | 9.7 | 0.00 | 0.00 | 0.00 | 46 | 1007.8 |
| 20260505014810 | 18 | 0 | 0.0 | 9.7 | 0.00 | 0.00 | 0.00 | 45 | 1007.8 |
| 20260505014708 | 18 | 0 | 0.0 | 9.7 | 0.00 | 0.00 | 0.00 | 45 | 1007.9 |
| 20260505014608 | 18 | 0 | 0.0 | 9.7 | 0.00 | 0.00 | 0.00 | 46 | 1007.8 |
| 20260505014550 | 18 | 360 | 0.0 | 9.7 | 0.00 | 0.00 | 0.00 | 45 | 1007.7 |
| 20260505014507 | 18 | 0 | 0.0 | 9.7 | 0.00 | 0.00 | 0.00 | 45 | 1007.8 |
| 20260505014407 | 18 | 0 | 0.0 | 9.7 | 0.00 | 0.00 | 0.00 | 45 | 1007.8 |
| 20260505014307 | 18 | 0 | 0.0 | 9.7 | 0.00 | 0.00 | 0.00 | 45 | 1007.8 |
| 20260505014206 | 18 | 0 | 0.0 | 3.2 | 0.00 | 0.00 | 0.00 | 45 | 1007.9 |
| 20260505014106 | 18 | 0 | 0.0 | 3.2 | 0.00 | 0.00 | 0.00 | 45 | 1007.9 |
| 20260505014033 | 18 | 0 | 0.0 | 4.8 | 0.00 | 0.00 | 0.00 | 45 | 1007.9 |
| 20260505014020 | 18 | 360 | 0.0 | 3.2 | 0.00 | 0.00 | 0.00 | 45 | 1007.8 |
| 20260505014005 | 18 | 0 | 0.0 | 3.2 | 0.00 | 0.00 | 0.00 | 45 | 1007.9 |
| 20260505013919 | 18 | 0 | 0.0 | 4.8 | 0.00 | 0.00 | 0.00 | 45 | 1007.9 |
| 20260505013804 | 18 | 0 | 0.0 | 4.8 | 0.00 | 0.00 | 0.00 | 45 | 1007.9 |
| 20260505013704 | 18 | 0 | 0.0 | 4.8 | 0.00 | 0.00 | 0.00 | 45 | 1007.9 |
| 20260505013604 | 18 | 0 | 0.0 | 4.8 | 0.00 | 0.00 | 0.00 | 45 | 1007.9 |
| 20260505013521 | 18 | 360 | 0.0 | 14.5 | 0.00 | 0.00 | 0.00 | 45 | 1007.8 |
| 20260505013515 | 18 | 0 | 0.0 | 14.5 | 0.00 | 0.00 | 0.00 | 45 | 1007.9 |
| 20260505013511 | 18 | 0 | 0.0 | 14.5 | 0.00 | 0.00 | 0.00 | 45 | 1007.9 |
| 20260505013307 | 18 | 0 | 0.0 | 14.5 | 0.00 | 0.00 | 0.00 | 45 | 1007.9 |
| 20260505013301 | 18 | 0 | 0.0 | 14.5 | 0.00 | 0.00 | 0.00 | 45 | 1007.9 |
| 20260505013203 | 18 | 0 | 0.0 | 14.5 | 0.00 | 0.00 | 0.00 | 45 | 1007.9 |
| 20260505013113 | 18 | 0 | 0.0 | 14.5 | 0.00 | 0.00 | 0.00 | 45 | 1007.9 |
| 20260505013109 | 18 | 0 | 0.0 | 14.5 | 0.00 | 0.00 | 0.00 | 45 | 1007.9 |
| 20260505013020 | 18 | 360 | 0.0 | 14.5 | 0.00 | 0.00 | 0.00 | 45 | 1007.8 |
| 20260505012900 | 18 | 0 | 0.0 | 14.5 | 0.00 | 0.00 | 0.00 | 46 | 1007.9 |
| 20260505012805 | 18 | 0 | 0.0 | 14.5 | 0.00 | 0.00 | 0.00 | 46 | 1007.9 |
| 20260505012759 | 18 | 0 | 0.0 | 14.5 | 0.00 | 0.00 | 0.00 | 46 | 1007.9 |
| 20260505012659 | 18 | 0 | 0.0 | 14.5 | 0.00 | 0.00 | 0.00 | 46 | 1007.9 |
| 20260505012557 | 18 | 0 | 0.0 | 14.5 | 0.00 | 0.00 | 0.00 | 46 | 1007.8 |
| 20260505012520 | 18 | 360 | 14.5 | 14.5 | 0.00 | 0.00 | 0.00 | 46 | 1007.8 |
| 20260505012511 | 18 | 0 | 0.0 | 6.4 | 0.00 | 0.00 | 0.00 | 46 | 1007.9 |
| 20260505012507 | 18 | 0 | 0.0 | 8.0 | 0.00 | 0.00 | 0.00 | 46 | 1007.9 |
| 20260505012315 | 18 | 0 | 0.0 | 6.4 | 0.00 | 0.00 | 0.00 | 46 | 1007.9 |
| 20260505012311 | 18 | 0 | 0.0 | 6.4 | 0.00 | 0.00 | 0.00 | 46 | 1007.9 |
| 20260505012306 | 18 | 0 | 0.0 | 6.4 | 0.00 | 0.00 | 0.00 | 46 | 1007.9 |
| 20260505012056 | 18 | 0 | 0.0 | 6.4 | 0.00 | 0.00 | 0.00 | 46 | 1007.9 |
| 20260505012020 | 18 | 360 | 0.0 | 6.4 | 0.00 | 0.00 | 0.00 | 46 | 1007.8 |
| 20260505011956 | 18 | 0 | 0.0 | 6.4 | 0.00 | 0.00 | 0.00 | 46 | 1007.9 |
| 20260505011856 | 18 | 0 | 0.0 | 6.4 | 0.00 | 0.00 | 0.00 | 46 | 1007.8 |
| 20260505011815 | 18 | 0 | 0.0 | 6.4 | 0.00 | 0.00 | 0.00 | 46 | 1007.9 |
| 20260505011702 | 18 | 0 | 0.0 | 6.4 | 0.00 | 0.00 | 0.00 | 46 | 1007.8 |
| 20260505011535 | 18 | 360 | 0.0 | 0.0 | 0.00 | 0.00 | 0.00 | 46 | 1007.7 |
| 20260505011452 | 17 | 0 | 0.0 | 0.0 | 0.00 | 0.00 | 0.00 | 46 | 1007.8 |
| 20260505011352 | 17 | 0 | 0.0 | 0.0 | 0.00 | 0.00 | 0.00 | 46 | 1007.8 |
| 20260505011252 | 17 | 0 | 0.0 | 0.0 | 0.00 | 0.00 | 0.00 | 46 | 1007.8 |
| 20260505011216 | 17 | 0 | 0.0 | 0.0 | 0.00 | 0.00 | 0.00 | 47 | 1007.8 |
| 20260505011212 | 17 | 0 | 0.0 | 0.0 | 0.00 | 0.00 | 0.00 | 47 | 1007.8 |
| 20260505011208 | 17 | 0 | 0.0 | 0.0 | 0.00 | 0.00 | 0.00 | 47 | 1007.8 |
| 20260505011035 | 17 | 360 | 0.0 | 0.0 | 0.00 | 0.00 | 0.00 | 47 | 1007.7 |
| 20260505010849 | 17 | 0 | 0.0 | 0.0 | 0.00 | 0.00 | 0.00 | 47 | 1007.8 |
| 20260505010748 | 17 | 0 | 0.0 | 0.0 | 0.00 | 0.00 | 0.00 | 47 | 1007.7 |
| 20260505010648 | 17 | 0 | 0.0 | 0.0 | 0.00 | 0.00 | 0.00 | 47 | 1007.7 |
| 20260505010547 | 17 | 0 | 0.0 | 0.0 | 0.00 | 0.00 | 0.00 | 47 | 1007.6 |
| 20260505010535 | 17 | 360 | 0.0 | 0.0 | 0.00 | 0.00 | 0.00 | 47 | 1007.5 |
| 20260505010446 | 17 | 0 | 0.0 | 0.0 | 0.00 | 0.00 | 0.00 | 47 | 1007.6 |
| 20260505010242 | 17 | 0 | 0.0 | 0.0 | 0.00 | 0.00 | 0.00 | 47 | 1007.6 |
| 20260505010142 | 17 | 0 | 0.0 | 0.0 | 0.00 | 0.00 | 0.00 | 47 | 1007.5 |
| 20260505010041 | 17 | 0 | 0.0 | 0.0 | 0.00 | 0.00 | 0.00 | 47 | 1007.5 |
| 20260505010020 | 17 | 360 | 0.0 | 0.0 | 0.00 | 0.00 | 0.00 | 47 | 1007.4 |
| 20260505005941 | 17 | 0 | 0.0 | 0.0 | 0.00 | 0.00 | 0.00 | 48 | 1007.5 |
| 20260505005842 | 17 | 0 | 0.0 | 0.0 | 0.00 | 0.00 | 0.00 | 47 | 1007.4 |
| 20260505005741 | 17 | 0 | 0.0 | 0.0 | 0.00 | 0.00 | 0.00 | 47 | 1007.5 |
| 20260505005641 | 17 | 0 | 0.0 | 0.0 | 0.00 | 0.00 | 0.00 | 47 | 1007.4 |
| 20260505005541 | 17 | 0 | 0.0 | 0.0 | 0.00 | 0.00 | 0.00 | 47 | 1007.5 |
| 20260505005535 | 17 | 360 | 0.0 | 0.0 | 0.00 | 0.00 | 0.00 | 47 | 1007.4 |
| 20260505005533 | 18 | 0 | 0.0 | 0.0 | 0.00 | 0.00 | 0.00 | 46 | 1007.4 |
| 20260505005527 | 17 | 0 | 0.0 | 0.0 | 0.00 | 0.00 | 0.00 | 47 | 1007.5 |
| 20260505005415 | 18 | 0 | 0.0 | 0.0 | 0.00 | 0.00 | 0.00 | 46 | 1007.4 |
| 20260505005410 | 18 | 0 | 0.0 | 0.0 | 0.00 | 0.00 | 0.00 | 47 | 1007.5 |
| 20260505005401 | 18 | 0 | 0.0 | 0.0 | 0.00 | 0.00 | 0.00 | 46 | 1007.4 |
| 20260505005020 | 18 | 360 | 0.0 | 0.0 | 0.00 | 0.00 | 0.00 | 46 | 1007.3 |
| 20260505004937 | 18 | 0 | 0.0 | 0.0 | 0.00 | 0.00 | 0.00 | 46 | 1007.4 |
| 20260505004850 | 18 | 0 | 0.0 | 0.0 | 0.00 | 0.00 | 0.00 | 46 | 1007.3 |
| 20260505004841 | 18 | 0 | 0.0 | 0.0 | 0.00 | 0.00 | 0.00 | 45 | 1007.4 |
| 20260505004635 | 18 | 0 | 0.0 | 0.0 | 0.00 | 0.00 | 0.00 | 46 | 1007.3 |
| 20260505004547 | 18 | 0 | 0.0 | 0.0 | 0.00 | 0.00 | 0.00 | 45 | 1007.4 |
| 20260505004543 | 18 | 0 | 0.0 | 0.0 | 0.00 | 0.00 | 0.00 | 45 | 1007.3 |
| 20260505004520 | 18 | 360 | 0.0 | 0.0 | 0.00 | 0.00 | 0.00 | 45 | 1007.3 |
| 20260505004333 | 18 | 0 | 0.0 | 0.0 | 0.00 | 0.00 | 0.00 | 44 | 1007.3 |
| 20260505004232 | 18 | 0 | 0.0 | 0.0 | 0.00 | 0.00 | 0.00 | 44 | 1007.3 |
| 20260505004132 | 18 | 0 | 0.0 | 0.0 | 0.00 | 0.00 | 0.00 | 44 | 1007.3 |
| 20260505004032 | 18 | 0 | 0.0 | 0.0 | 0.00 | 0.00 | 0.00 | 44 | 1007.3 |
| 20260505004020 | 18 | 360 | 0.0 | 0.0 | 0.00 | 0.00 | 0.00 | 44 | 1007.1 |
| 20260505003932 | 18 | 0 | 0.0 | 0.0 | 0.00 | 0.00 | 0.00 | 44 | 1007.2 |
| 20260505003846 | 18 | 0 | 0.0 | 0.0 | 0.00 | 0.00 | 0.00 | 44 | 1007.3 |
| 20260505003837 | 18 | 0 | 0.0 | 0.0 | 0.00 | 0.00 | 0.00 | 44 | 1007.3 |
| 20260505003631 | 18 | 0 | 0.0 | 0.0 | 0.00 | 0.00 | 0.00 | 44 | 1007.3 |
| 20260505003535 | 18 | 360 | 0.0 | 0.0 | 0.00 | 0.00 | 0.00 | 43 | 1007.2 |
| 20260505003530 | 18 | 0 | 0.0 | 0.0 | 0.00 | 0.00 | 0.00 | 43 | 1007.3 |
| 20260505003429 | 18 | 0 | 0.0 | 0.0 | 0.00 | 0.00 | 0.00 | 43 | 1007.3 |
| 20260505003329 | 18 | 0 | 0.0 | 0.0 | 0.00 | 0.00 | 0.00 | 43 | 1007.2 |
| 20260505003229 | 19 | 0 | 0.0 | 0.0 | 0.00 | 0.00 | 0.00 | 43 | 1007.2 |
| 20260505003129 | 19 | 0 | 0.0 | 0.0 | 0.00 | 0.00 | 0.00 | 43 | 1007.3 |
| 20260505003028 | 19 | 0 | 0.0 | 0.0 | 0.00 | 0.00 | 0.00 | 42 | 1007.2 |
| 20260505003020 | 19 | 360 | 0.0 | 0.0 | 0.00 | 0.00 | 0.00 | 42 | 1007.2 |
| 20260505002928 | 19 | 0 | 0.0 | 0.0 | 0.00 | 0.00 | 0.00 | 42 | 1007.3 |
| 20260505002827 | 19 | 0 | 0.0 | 0.0 | 0.00 | 0.00 | 0.00 | 42 | 1007.2 |
| 20260505002727 | 19 | 0 | 0.0 | 0.0 | 0.00 | 0.00 | 0.00 | 42 | 1007.2 |
| 20260505002626 | 19 | 0 | 0.0 | 0.0 | 0.00 | 0.00 | 0.00 | 42 | 1007.2 |
| 20260505002525 | 19 | 0 | 0.0 | 0.0 | 0.00 | 0.00 | 0.00 | 42 | 1007.2 |
| 20260505002520 | 19 | 360 | 0.0 | 0.0 | 0.00 | 0.00 | 0.00 | 42 | 1007.2 |
| 20260505002514 | 19 | 0 | 0.0 | 0.0 | 0.00 | 0.00 | 0.00 | 42 | 1007.3 |
| 20260505002425 | 19 | 0 | 0.0 | 0.0 | 0.00 | 0.00 | 0.00 | 42 | 1007.3 |
| 20260505002358 | 19 | 0 | 0.0 | 0.0 | 0.00 | 0.00 | 0.00 | 42 | 1007.3 |
| 20260505002236 | 19 | 0 | 0.0 | 0.0 | 0.00 | 0.00 | 0.00 | 41 | 1007.3 |
| 20260505002232 | 19 | 0 | 0.0 | 0.0 | 0.00 | 0.00 | 0.00 | 42 | 1007.3 |
| 20260505002022 | 19 | 0 | 0.0 | 0.0 | 0.00 | 0.00 | 0.00 | 41 | 1007.3 |
| 20260505002020 | 19 | 360 | 0.0 | 0.0 | 0.00 | 0.00 | 0.00 | 41 | 1007.2 |
| 20260505001922 | 19 | 0 | 0.0 | 0.0 | 0.00 | 0.00 | 0.00 | 41 | 1007.3 |
| 20260505001822 | 19 | 0 | 0.0 | 0.0 | 0.00 | 0.00 | 0.00 | 41 | 1007.3 |
| 20260505001722 | 19 | 0 | 0.0 | 0.0 | 0.00 | 0.00 | 0.00 | 41 | 1007.2 |
| 20260505001621 | 19 | 0 | 0.0 | 0.0 | 0.00 | 0.00 | 0.00 | 41 | 1007.2 |
| 20260505001550 | 19 | 360 | 0.0 | 0.0 | 0.00 | 0.00 | 0.00 | 41 | 1007.1 |
| 20260505001521 | 19 | 0 | 0.0 | 0.0 | 0.00 | 0.00 | 0.00 | 41 | 1007.2 |
| 20260505001421 | 19 | 0 | 0.0 | 0.0 | 0.00 | 0.00 | 0.00 | 41 | 1007.2 |
| 20260505001320 | 19 | 0 | 0.0 | 0.0 | 0.00 | 0.00 | 0.00 | 41 | 1007.2 |
| 20260505001220 | 19 | 0 | 0.0 | 0.0 | 0.00 | 0.00 | 0.00 | 41 | 1007.1 |
| 20260505001119 | 19 | 0 | 0.0 | 0.0 | 0.00 | 0.00 | 0.00 | 41 | 1007.1 |
| 20260505001105 | 20 | 360 | 0.0 | 0.0 | 0.00 | 0.00 | 0.00 | 41 | 1007.0 |
| 20260505001018 | 19 | 0 | 0.0 | 0.0 | 0.00 | 0.00 | 0.00 | 41 | 1007.1 |
| 20260505001009 | 20 | 0 | 0.0 | 0.0 | 0.00 | 0.00 | 0.00 | 41 | 1007.1 |
| 20260505000918 | 19 | 0 | 0.0 | 0.0 | 0.00 | 0.00 | 0.00 | 41 | 1007.1 |
| 20260505000854 | 20 | 0 | 0.0 | 0.0 | 0.00 | 0.00 | 0.00 | 41 | 1007.1 |
| 20260505000717 | 20 | 0 | 0.0 | 0.0 | 0.00 | 0.00 | 0.00 | 41 | 1007.1 |
| 20260505000616 | 20 | 0 | 0.0 | 0.0 | 0.00 | 0.00 | 0.00 | 41 | 1007.1 |
| 20260505000535 | 20 | 360 | 0.0 | 0.0 | 0.00 | 0.00 | 0.00 | 41 | 1007.0 |
| 20260505000515 | 20 | 0 | 0.0 | 0.0 | 0.00 | 0.00 | 0.00 | 41 | 1007.1 |
| 20260505000416 | 20 | 0 | 0.0 | 0.0 | 0.00 | 0.00 | 0.00 | 41 | 1007.1 |
| 20260505000314 | 20 | 0 | 0.0 | 0.0 | 0.00 | 0.00 | 0.00 | 41 | 1007.1 |
| 20260505000215 | 20 | 0 | 0.0 | 0.0 | 0.00 | 0.00 | 0.00 | 41 | 1007.1 |
| 20260505000113 | 20 | 0 | 0.0 | 0.0 | 0.00 | 0.00 | 0.00 | 41 | 1007.1 |
| 20260505000020 | 20 | 360 | 0.0 | 0.0 | 0.00 | 0.00 | 0.00 | 40 | 1006.9 |
| 20260505000013 | 20 | 0 | 0.0 | 0.0 | 0.00 | 0.00 | 0.00 | 40 | 1007.0 |
| 20260504235913 | 20 | 0 | 0.0 | 0.0 | 0.00 | 0.00 | 0.00 | 40 | 1007.1 |
| 20260504235824 | 20 | 0 | 0.0 | 0.0 | 0.00 | 0.00 | 0.00 | 40 | 1007.1 |
| 20260504235816 | 20 | 0 | 0.0 | 0.0 | 0.00 | 0.00 | 0.00 | 41 | 1007.1 |
| 20260504235635 | 20 | 0 | 0.0 | 0.0 | 0.00 | 0.00 | 0.00 | 40 | 1007.1 |
| 20260504235522 | 20 | 0 | 0.0 | 0.0 | 0.00 | 0.00 | 0.00 | 40 | 1007.0 |
| 20260504235520 | 20 | 360 | 0.0 | 0.0 | 0.00 | 0.00 | 0.00 | 40 | 1007.0 |
| 20260504235517 | 20 | 0 | 0.0 | 0.0 | 0.00 | 0.00 | 0.00 | 40 | 1007.1 |
| 20260504235348 | 20 | 0 | 0.0 | 0.0 | 0.00 | 0.00 | 0.00 | 40 | 1007.0 |
| 20260504235207 | 20 | 0 | 0.0 | 0.0 | 0.00 | 0.00 | 0.00 | 40 | 1007.1 |
| 20260504235107 | 20 | 0 | 0.0 | 0.0 | 0.00 | 0.00 | 0.00 | 40 | 1007.1 |
| 20260504235020 | 20 | 360 | 0.0 | 0.0 | 0.00 | 0.00 | 0.00 | 39 | 1006.9 |
| 20260504235007 | 20 | 0 | 0.0 | 0.0 | 0.00 | 0.00 | 0.00 | 39 | 1007.0 |
| 20260504234906 | 20 | 0 | 0.0 | 0.0 | 0.00 | 0.00 | 0.00 | 39 | 1007.1 |
| 20260504234806 | 20 | 0 | 0.0 | 0.0 | 0.00 | 0.00 | 0.00 | 40 | 1007.1 |
| 20260504234738 | 20 | 0 | 0.0 | 0.0 | 0.00 | 0.00 | 0.00 | 40 | 1007.1 |
| 20260504234707 | 20 | 0 | 0.0 | 0.0 | 0.00 | 0.00 | 0.00 | 40 | 1007.0 |
| 20260504234605 | 20 | 0 | 0.0 | 0.0 | 0.00 | 0.00 | 0.00 | 40 | 1007.0 |
| 20260504234520 | 20 | 360 | 0.0 | 0.0 | 0.00 | 0.00 | 0.00 | 40 | 1006.9 |
| 20260504234505 | 20 | 0 | 0.0 | 0.0 | 0.00 | 0.00 | 0.00 | 40 | 1007.0 |
| 20260504234457 | 20 | 0 | 0.0 | 0.0 | 0.00 | 0.00 | 0.00 | 40 | 1007.0 |
| 20260504234405 | 20 | 0 | 0.0 | 0.0 | 0.00 | 0.00 | 0.00 | 40 | 1007.0 |
| 20260504234346 | 20 | 0 | 0.0 | 0.0 | 0.00 | 0.00 | 0.00 | 40 | 1007.0 |
| 20260504234217 | 20 | 0 | 0.0 | 0.0 | 0.00 | 0.00 | 0.00 | 39 | 1007.0 |
| 20260504234213 | 20 | 0 | 0.0 | 0.0 | 0.00 | 0.00 | 0.00 | 39 | 1007.0 |
| 20260504234020 | 20 | 360 | 0.0 | 1.6 | 0.00 | 0.00 | 0.00 | 39 | 1006.9 |
| 20260504234013 | 20 | 0 | 0.0 | 1.6 | 0.00 | 0.00 | 0.00 | 39 | 1007.0 |
| 20260504234009 | 20 | 0 | 0.0 | 1.6 | 0.00 | 0.00 | 0.00 | 39 | 1007.0 |
| 20260504233819 | 20 | 0 | 0.0 | 12.9 | 0.00 | 0.00 | 0.00 | 39 | 1006.9 |
| 20260504233814 | 20 | 0 | 0.0 | 1.6 | 0.00 | 0.00 | 0.00 | 39 | 1007.0 |
| 20260504233806 | 20 | 0 | 0.0 | 3.2 | 0.00 | 0.00 | 0.00 | 39 | 1007.0 |
| 20260504233559 | 20 | 0 | 0.0 | 12.9 | 0.00 | 0.00 | 0.00 | 39 | 1007.0 |
| 20260504233520 | 20 | 360 | 0.0 | 12.9 | 0.00 | 0.00 | 0.00 | 39 | 1006.9 |
| 20260504233512 | 20 | 0 | 0.0 | 12.9 | 0.00 | 0.00 | 0.00 | 39 | 1007.0 |
| 20260504233508 | 20 | 0 | 0.0 | 12.9 | 0.00 | 0.00 | 0.00 | 39 | 1007.0 |
| 20260504233315 | 20 | 0 | 0.0 | 12.9 | 0.00 | 0.00 | 0.00 | 38 | 1007.0 |
| 20260504233204 | 20 | 0 | 0.0 | 12.9 | 0.00 | 0.00 | 0.00 | 38 | 1007.0 |
| 20260504233020 | 20 | 360 | 0.0 | 12.9 | 0.00 | 0.00 | 0.00 | 38 | 1006.8 |
| 20260504233008 | 20 | 0 | 0.0 | 12.9 | 0.00 | 0.00 | 0.00 | 38 | 1006.9 |
| 20260504233004 | 20 | 0 | 0.0 | 12.9 | 0.00 | 0.00 | 0.00 | 38 | 1006.9 |
| 20260504232737 | 20 | 0 | 0.0 | 12.9 | 0.00 | 0.00 | 0.00 | 38 | 1007.0 |
| 20260504232653 | 20 | 0 | 0.0 | 9.7 | 0.00 | 0.00 | 0.00 | 39 | 1007.0 |
| 20260504232553 | 20 | 0 | 0.0 | 9.7 | 0.00 | 0.00 | 0.00 | 38 | 1007.0 |
| 20260504232520 | 21 | 360 | 0.0 | 9.7 | 0.00 | 0.00 | 0.00 | 38 | 1006.8 |
| 20260504232452 | 20 | 0 | 0.0 | 6.4 | 0.00 | 0.00 | 0.00 | 38 | 1007.0 |
| 20260504232351 | 21 | 0 | 0.0 | 9.7 | 0.00 | 0.00 | 0.00 | 38 | 1007.0 |
| 20260504232235 | 21 | 0 | 0.0 | 14.5 | 0.00 | 0.00 | 0.00 | 38 | 1007.0 |
| 20260504232151 | 21 | 0 | 0.0 | 14.5 | 0.00 | 0.00 | 0.00 | 38 | 1007.0 |
| 20260504232050 | 21 | 0 | 0.0 | 14.5 | 0.00 | 0.00 | 0.00 | 38 | 1007.0 |
| 20260504232020 | 21 | 360 | 0.0 | 9.7 | 0.00 | 0.00 | 0.00 | 38 | 1006.8 |
| 20260504231950 | 21 | 0 | 0.0 | 14.5 | 0.00 | 0.00 | 0.00 | 37 | 1007.0 |
| 20260504231848 | 21 | 0 | 0.0 | 14.5 | 0.00 | 0.00 | 0.00 | 38 | 1007.0 |
| 20260504231736 | 21 | 0 | 0.0 | 14.5 | 0.00 | 0.00 | 0.00 | 38 | 1007.0 |
| 20260504231701 | 21 | 0 | 1.6 | 14.5 | 0.00 | 0.00 | 0.00 | 37 | 1006.9 |
| 20260504231657 | 21 | 0 | 1.6 | 14.5 | 0.00 | 0.00 | 0.00 | 38 | 1007.0 |
| 20260504231520 | 21 | 360 | 0.0 | 9.7 | 0.00 | 0.00 | 0.00 | 37 | 1006.8 |
| 20260504231446 | 21 | 0 | 1.6 | 14.5 | 0.00 | 0.00 | 0.00 | 37 | 1007.0 |
| 20260504231347 | 21 | 0 | 0.0 | 14.5 | 0.00 | 0.00 | 0.00 | 37 | 1007.0 |
| 20260504231234 | 21 | 0 | 0.0 | 12.9 | 0.00 | 0.00 | 0.00 | 37 | 1006.9 |
| 20260504231146 | 21 | 0 | 1.6 | 12.9 | 0.00 | 0.00 | 0.00 | 37 | 1007.0 |
| 20260504231046 | 21 | 0 | 1.6 | 14.5 | 0.00 | 0.00 | 0.00 | 37 | 1007.0 |
| 20260504231020 | 21 | 360 | 0.0 | 14.5 | 0.00 | 0.00 | 0.00 | 37 | 1006.7 |
| 20260504230944 | 21 | 0 | 0.0 | 14.5 | 0.00 | 0.00 | 0.00 | 37 | 1006.9 |
| 20260504230845 | 21 | 0 | 0.0 | 14.5 | 0.00 | 0.00 | 0.00 | 37 | 1007.0 |
| 20260504230731 | 21 | 0 | 0.0 | 14.5 | 0.00 | 0.00 | 0.00 | 37 | 1007.0 |
| 20260504230645 | 21 | 0 | 0.0 | 14.5 | 0.00 | 0.00 | 0.00 | 37 | 1006.9 |
| 20260504230543 | 21 | 0 | 0.0 | 14.5 | 0.00 | 0.00 | 0.00 | 37 | 1006.9 |
| 20260504230520 | 21 | 360 | 4.8 | 14.5 | 0.00 | 0.00 | 0.00 | 37 | 1006.7 |
| 20260504230456 | 21 | 0 | 0.0 | 14.5 | 0.00 | 0.00 | 0.00 | 36 | 1006.9 |
| 20260504230451 | 21 | 0 | 0.0 | 14.5 | 0.00 | 0.00 | 0.00 | 37 | 1006.9 |
| 20260504230242 | 21 | 0 | 0.0 | 14.5 | 0.00 | 0.00 | 0.00 | 36 | 1006.9 |
| 20260504230232 | 21 | 0 | 0.0 | 14.5 | 0.00 | 0.00 | 0.00 | 36 | 1006.9 |
| 20260504230141 | 21 | 0 | 0.0 | 14.5 | 0.00 | 0.00 | 0.00 | 37 | 1006.9 |
| 20260504230041 | 21 | 0 | 0.0 | 8.0 | 0.00 | 0.00 | 0.00 | 37 | 1006.9 |
| 20260504230020 | 21 | 360 | 0.0 | 8.0 | 0.00 | 0.00 | 0.00 | 36 | 1006.7 |
| 20260504225940 | 21 | 0 | 0.0 | 8.0 | 0.00 | 0.00 | 0.00 | 36 | 1006.9 |
| 20260504225838 | 21 | 155 | 0.0 | 8.0 | 0.00 | 0.00 | 0.00 | 36 | 1006.9 |
| 20260504225739 | 21 | 194 | 0.0 | 8.0 | 0.00 | 0.00 | 0.00 | 37 | 1006.9 |
| 20260504225732 | 21 | 193 | 0.0 | 8.0 | 0.00 | 0.00 | 0.00 | 37 | 1006.9 |
| 20260504225637 | 21 | 203 | 0.0 | 8.0 | 0.00 | 0.00 | 0.00 | 36 | 1006.9 |
| 20260504225537 | 21 | 200 | 0.0 | 8.0 | 0.00 | 0.00 | 0.00 | 36 | 1006.9 |
| 20260504225520 | 21 | 177 | 0.0 | 8.0 | 0.00 | 0.00 | 0.00 | 36 | 1006.7 |
| 20260504225436 | 21 | 167 | 0.0 | 8.0 | 0.00 | 0.00 | 0.00 | 36 | 1006.9 |
| 20260504225350 | 21 | 213 | 0.0 | 8.0 | 0.00 | 0.00 | 0.00 | 36 | 1006.9 |
| 20260504225346 | 21 | 218 | 0.0 | 8.0 | 0.00 | 0.00 | 0.00 | 36 | 1006.9 |
| 20260504225230 | 21 | 223 | 0.0 | 8.0 | 0.00 | 0.00 | 0.00 | 36 | 1006.9 |
| 20260504225135 | 21 | 228 | 0.0 | 8.0 | 0.00 | 0.00 | 0.00 | 36 | 1006.9 |
| 20260504225057 | 21 | 194 | 0.0 | 8.0 | 0.00 | 0.00 | 0.00 | 36 | 1006.9 |
| 20260504225020 | 21 | 214 | 0.0 | 8.0 | 0.00 | 0.00 | 0.00 | 36 | 1006.7 |
| 20260504224943 | 21 | 188 | 0.0 | 8.0 | 0.00 | 0.00 | 0.00 | 36 | 1006.9 |
| 20260504224730 | 21 | 225 | 0.0 | 9.7 | 0.00 | 0.00 | 0.00 | 36 | 1006.8 |
| 20260504224646 | 21 | 231 | 0.0 | 9.7 | 0.00 | 0.00 | 0.00 | 36 | 1006.8 |
| 20260504224642 | 21 | 219 | 0.0 | 9.7 | 0.00 | 0.00 | 0.00 | 35 | 1006.8 |
| 20260504224520 | 21 | 193 | 0.0 | 9.7 | 0.00 | 0.00 | 0.00 | 36 | 1006.6 |
| 20260504224505 | 21 | 176 | 0.0 | 9.7 | 0.00 | 0.00 | 0.00 | 36 | 1006.8 |
| 20260504224500 | 21 | 176 | 0.0 | 9.7 | 0.00 | 0.00 | 0.00 | 35 | 1006.8 |
| 20260504224455 | 21 | 198 | 0.0 | 9.7 | 0.00 | 0.00 | 0.00 | 35 | 1006.8 |
| 20260504224337 | 21 | 176 | 0.0 | 9.7 | 0.00 | 0.00 | 0.00 | 35 | 1006.8 |
| 20260504224130 | 21 | 220 | 0.0 | 9.7 | 0.00 | 0.00 | 0.00 | 36 | 1006.8 |
| 20260504224113 | 21 | 197 | 0.0 | 11.3 | 0.00 | 0.00 | 0.00 | 35 | 1006.8 |
| 20260504224109 | 21 | 177 | 0.0 | 11.3 | 0.00 | 0.00 | 0.00 | 35 | 1006.9 |
| 20260504224105 | 21 | 187 | 0.0 | 11.3 | 0.00 | 0.00 | 0.00 | 36 | 1006.9 |
| 20260504224100 | 21 | 193 | 0.0 | 9.7 | 0.00 | 0.00 | 0.00 | 35 | 1006.8 |
| 20260504224035 | 21 | 194 | 0.0 | 9.7 | 0.00 | 0.00 | 0.00 | 35 | 1006.6 |
| 20260504223832 | 21 | 187 | 0.0 | 11.3 | 0.00 | 0.00 | 0.00 | 35 | 1006.9 |
| 20260504223626 | 21 | 209 | 0.0 | 11.3 | 0.00 | 0.00 | 0.00 | 35 | 1006.9 |
| 20260504223526 | 21 | 211 | 1.6 | 11.3 | 0.00 | 0.00 | 0.00 | 36 | 1006.9 |
| 20260504223520 | 21 | 180 | 6.4 | 11.3 | 0.00 | 0.00 | 0.00 | 36 | 1006.8 |
| 20260504223438 | 21 | 202 | 1.6 | 14.5 | 0.00 | 0.00 | 0.00 | 36 | 1007.0 |
| 20260504223434 | 21 | 224 | 1.6 | 11.3 | 0.00 | 0.00 | 0.00 | 36 | 1007.0 |
| 20260504223246 | 21 | 197 | 1.6 | 14.5 | 0.00 | 0.00 | 0.00 | 35 | 1007.0 |
| 20260504223241 | 21 | 226 | 1.6 | 14.5 | 0.00 | 0.00 | 0.00 | 35 | 1007.0 |
| 20260504223236 | 21 | 227 | 1.6 | 14.5 | 0.00 | 0.00 | 0.00 | 35 | 1007.0 |
| 20260504223226 | 21 | 169 | 1.6 | 14.5 | 0.00 | 0.00 | 0.00 | 35 | 1007.0 |
| 20260504223115 | 21 | 186 | 0.0 | 14.5 | 0.00 | 0.00 | 0.00 | 36 | 1007.0 |
| 20260504223110 | 21 | 199 | 1.6 | 14.5 | 0.00 | 0.00 | 0.00 | 35 | 1007.0 |
| 20260504223105 | 21 | 134 | 1.6 | 14.5 | 0.00 | 0.00 | 0.00 | 35 | 1007.0 |
| 20260504223020 | 21 | 193 | 3.2 | 14.5 | 0.00 | 0.00 | 0.00 | 35 | 1006.8 |
| 20260504222732 | 21 | 154 | 0.0 | 14.5 | 0.00 | 0.00 | 0.00 | 36 | 1007.0 |
| 20260504222522 | 21 | 198 | 0.0 | 14.5 | 0.00 | 0.00 | 0.00 | 36 | 1007.0 |
| 20260504222423 | 21 | 211 | 0.0 | 14.5 | 0.00 | 0.00 | 0.00 | 35 | 1007.0 |
| 20260504222342 | 22 | 187 | 0.0 | 9.7 | 0.00 | 0.00 | 0.00 | 36 | 1007.0 |
| 20260504222337 | 21 | 189 | 0.0 | 9.7 | 0.00 | 0.00 | 0.00 | 36 | 1006.9 |
| 20260504222328 | 22 | 191 | 0.0 | 9.7 | 0.00 | 0.00 | 0.00 | 36 | 1007.0 |
| 20260504222121 | 22 | 179 | 0.0 | 9.7 | 0.00 | 0.00 | 0.00 | 36 | 1007.0 |
| 20260504222020 | 22 | 192 | 0.0 | 9.7 | 0.00 | 0.00 | 0.00 | 36 | 1006.8 |
| 20260504221920 | 21 | 173 | 0.0 | 12.9 | 0.00 | 0.00 | 0.00 | 36 | 1007.0 |
| 20260504221820 | 21 | 187 | 0.0 | 12.9 | 0.00 | 0.00 | 0.00 | 36 | 1007.1 |
| 20260504221719 | 21 | 192 | 0.0 | 12.9 | 0.00 | 0.00 | 0.00 | 35 | 1007.0 |
| 20260504221620 | 21 | 227 | 0.0 | 12.9 | 0.00 | 0.00 | 0.00 | 36 | 1007.1 |
| 20260504221520 | 22 | 208 | 0.0 | 12.9 | 0.00 | 0.00 | 0.00 | 36 | 1006.8 |
| 20260504221419 | 22 | 163 | 0.0 | 12.9 | 0.00 | 0.00 | 0.00 | 36 | 1007.0 |
| 20260504221318 | 22 | 172 | 0.0 | 12.9 | 0.00 | 0.00 | 0.00 | 36 | 1007.1 |
| 20260504221226 | 22 | 196 | 0.0 | 12.9 | 0.00 | 0.00 | 0.00 | 35 | 1007.1 |
| 20260504221218 | 22 | 188 | 0.0 | 12.9 | 0.00 | 0.00 | 0.00 | 35 | 1007.1 |
| 20260504221116 | 22 | 193 | 0.0 | 12.9 | 0.00 | 0.00 | 0.00 | 36 | 1007.1 |
| 20260504221035 | 22 | 173 | 8.0 | 12.9 | 0.00 | 0.00 | 0.00 | 36 | 1006.9 |
| 20260504221016 | 22 | 149 | 0.0 | 12.9 | 0.00 | 0.00 | 0.00 | 36 | 1007.1 |
| 20260504220943 | 22 | 174 | 0.0 | 9.7 | 0.00 | 0.00 | 0.00 | 36 | 1007.1 |
| 20260504220829 | 22 | 245 | 0.0 | 11.3 | 0.00 | 0.00 | 0.00 | 36 | 1007.1 |
| 20260504220820 | 22 | 171 | 0.0 | 12.9 | 0.00 | 0.00 | 0.00 | 36 | 1007.1 |
| 20260504220614 | 22 | 213 | 1.6 | 12.9 | 0.00 | 0.00 | 0.00 | 36 | 1007.1 |
| 20260504220555 | 22 | 215 | 1.6 | 12.9 | 0.00 | 0.00 | 0.00 | 36 | 1007.0 |
| 20260504220550 | 22 | 197 | 1.6 | 12.9 | 0.00 | 0.00 | 0.00 | 36 | 1007.0 |
| 20260504220546 | 22 | 191 | 1.6 | 12.9 | 0.00 | 0.00 | 0.00 | 36 | 1007.1 |
| 20260504220541 | 22 | 194 | 1.6 | 12.9 | 0.00 | 0.00 | 0.00 | 36 | 1007.0 |
| 20260504220532 | 22 | 153 | 1.6 | 12.9 | 0.00 | 0.00 | 0.00 | 36 | 1007.0 |
| 20260504220520 | 22 | 194 | 0.0 | 12.9 | 0.00 | 0.00 | 0.00 | 36 | 1006.8 |
| 20260504220108 | 22 | 172 | 1.6 | 12.9 | 0.00 | 0.00 | 0.00 | 36 | 1007.0 |
| 20260504220022 | 22 | 193 | 1.6 | 12.9 | 0.00 | 0.00 | 0.00 | 36 | 1007.0 |
| 20260504220020 | 22 | 185 | 0.0 | 12.9 | 0.00 | 0.00 | 0.00 | 36 | 1006.8 |
| 20260504220017 | 22 | 186 | 1.6 | 12.9 | 0.00 | 0.00 | 0.00 | 36 | 1007.0 |
| 20260504215807 | 22 | 213 | 0.0 | 12.9 | 0.00 | 0.00 | 0.00 | 36 | 1007.0 |
| 20260504215723 | 22 | 218 | 0.0 | 12.9 | 0.00 | 0.00 | 0.00 | 36 | 1007.0 |
| 20260504215708 | 22 | 213 | 1.6 | 12.9 | 0.00 | 0.00 | 0.00 | 36 | 1007.1 |
| 20260504215606 | 22 | 181 | 0.0 | 12.9 | 0.00 | 0.00 | 0.00 | 36 | 1007.0 |
| 20260504215520 | 22 | 209 | 0.0 | 12.9 | 0.00 | 0.00 | 0.00 | 36 | 1006.7 |
| 20260504215506 | 22 | 175 | 0.0 | 12.9 | 0.00 | 0.00 | 0.00 | 36 | 1007.0 |
| 20260504215432 | 22 | 139 | 0.0 | 12.9 | 0.00 | 0.00 | 0.00 | 35 | 1007.1 |
| 20260504215319 | 22 | 223 | 0.0 | 12.9 | 0.00 | 0.00 | 0.00 | 35 | 1007.1 |
| 20260504215311 | 22 | 170 | 0.0 | 12.9 | 0.00 | 0.00 | 0.00 | 35 | 1007.1 |
| 20260504215118 | 22 | 212 | 1.6 | 12.9 | 0.00 | 0.00 | 0.00 | 35 | 1007.2 |
| 20260504215113 | 22 | 185 | 0.0 | 12.9 | 0.00 | 0.00 | 0.00 | 35 | 1007.1 |
| 20260504215020 | 22 | 243 | 0.0 | 12.9 | 0.00 | 0.00 | 0.00 | 35 | 1006.9 |
| 20260504214903 | 22 | 196 | 1.6 | 12.9 | 0.00 | 0.00 | 0.00 | 36 | 1007.1 |
| 20260504214802 | 22 | 178 | 1.6 | 12.9 | 0.00 | 0.00 | 0.00 | 36 | 1007.1 |
| 20260504214723 | 22 | 212 | 1.6 | 12.9 | 0.00 | 0.00 | 0.00 | 35 | 1007.1 |
| 20260504214701 | 22 | 227 | 0.0 | 12.9 | 0.00 | 0.00 | 0.00 | 35 | 1007.1 |
| 20260504214615 | 22 | 175 | 0.0 | 9.7 | 0.00 | 0.00 | 0.00 | 35 | 1007.1 |
| 20260504214610 | 22 | 183 | 0.0 | 9.7 | 0.00 | 0.00 | 0.00 | 35 | 1007.1 |
| 20260504214520 | 22 | 179 | 0.0 | 9.7 | 0.00 | 0.00 | 0.00 | 35 | 1006.8 |
| 20260504214359 | 22 | 221 | 0.0 | 9.7 | 0.00 | 0.00 | 0.00 | 35 | 1007.1 |
| 20260504214300 | 22 | 197 | 0.0 | 12.9 | 0.00 | 0.00 | 0.00 | 36 | 1007.2 |
| 20260504214222 | 22 | 186 | 0.0 | 12.9 | 0.00 | 0.00 | 0.00 | 35 | 1007.2 |
| 20260504214159 | 22 | 188 | 0.0 | 12.9 | 0.00 | 0.00 | 0.00 | 35 | 1007.1 |
| 20260504214058 | 22 | 204 | 0.0 | 12.9 | 0.00 | 0.00 | 0.00 | 37 | 1007.2 |
| 20260504214020 | 22 | 190 | 0.0 | 12.9 | 0.00 | 0.00 | 0.00 | 36 | 1006.9 |
| 20260504214012 | 22 | 153 | 0.0 | 12.9 | 0.00 | 0.00 | 0.00 | 36 | 1007.1 |
| 20260504214006 | 22 | 208 | 0.0 | 12.9 | 0.00 | 0.00 | 0.00 | 36 | 1007.2 |
| 20260504213816 | 22 | 212 | 0.0 | 12.9 | 0.00 | 0.00 | 0.00 | 36 | 1007.2 |
| 20260504213811 | 22 | 206 | 0.0 | 12.9 | 0.00 | 0.00 | 0.00 | 36 | 1007.2 |
| 20260504213803 | 22 | 199 | 0.0 | 12.9 | 0.00 | 0.00 | 0.00 | 36 | 1007.2 |
| 20260504213556 | 22 | 234 | 0.0 | 12.9 | 0.00 | 0.00 | 0.00 | 35 | 1007.1 |
| 20260504213521 | 22 | 236 | 0.0 | 12.9 | 0.00 | 0.00 | 0.00 | 35 | 1006.9 |
| 20260504213456 | 22 | 250 | 0.0 | 12.9 | 0.00 | 0.00 | 0.00 | 36 | 1007.2 |
| 20260504213354 | 22 | 207 | 0.0 | 12.9 | 0.00 | 0.00 | 0.00 | 35 | 1007.1 |
| 20260504213254 | 22 | 223 | 0.0 | 11.3 | 0.00 | 0.00 | 0.00 | 35 | 1007.1 |
| 20260504213219 | 22 | 202 | 0.0 | 9.7 | 0.00 | 0.00 | 0.00 | 35 | 1007.1 |
| 20260504213154 | 22 | 187 | 0.0 | 9.7 | 0.00 | 0.00 | 0.00 | 35 | 1007.1 |
| 20260504213052 | 22 | 188 | 0.0 | 11.3 | 0.00 | 0.00 | 0.00 | 35 | 1007.1 |
| 20260504213050 | 22 | 228 | 3.2 | 9.7 | 0.00 | 0.00 | 0.00 | 36 | 1006.8 |
| 20260504212952 | 22 | 209 | 0.0 | 11.3 | 0.00 | 0.00 | 0.00 | 35 | 1007.1 |
| 20260504212852 | 22 | 178 | 0.0 | 11.3 | 0.00 | 0.00 | 0.00 | 35 | 1007.1 |
| 20260504212810 | 22 | 195 | 1.6 | 14.5 | 0.00 | 0.00 | 0.00 | 35 | 1007.1 |
| 20260504212804 | 22 | 165 | 1.6 | 14.5 | 0.00 | 0.00 | 0.00 | 35 | 1007.1 |
| 20260504212756 | 22 | 191 | 1.6 | 14.5 | 0.00 | 0.00 | 0.00 | 35 | 1007.1 |
| 20260504212603 | 22 | 195 | 1.6 | 14.5 | 0.00 | 0.00 | 0.00 | 35 | 1007.2 |
| 20260504212558 | 22 | 254 | 1.6 | 14.5 | 0.00 | 0.00 | 0.00 | 36 | 1007.1 |
| 20260504212520 | 22 | 169 | 0.0 | 14.5 | 0.00 | 0.00 | 0.00 | 35 | 1006.9 |
| 20260504212346 | 22 | 232 | 1.6 | 14.5 | 0.00 | 0.00 | 0.00 | 34 | 1007.2 |
| 20260504212246 | 22 | 215 | 1.6 | 14.5 | 0.00 | 0.00 | 0.00 | 34 | 1007.2 |
| 20260504212220 | 22 | 213 | 1.6 | 14.5 | 0.00 | 0.00 | 0.00 | 34 | 1007.2 |
| 20260504212145 | 22 | 123 | 0.0 | 14.5 | 0.00 | 0.00 | 0.00 | 34 | 1007.1 |
| 20260504212045 | 22 | 149 | 0.0 | 14.5 | 0.00 | 0.00 | 0.00 | 35 | 1007.1 |
| 20260504212020 | 22 | 160 | 0.0 | 14.5 | 0.00 | 0.00 | 0.00 | 35 | 1006.9 |
| 20260504211943 | 22 | 246 | 0.0 | 14.5 | 0.00 | 0.00 | 0.00 | 35 | 1007.2 |
| 20260504211843 | 22 | 234 | 0.0 | 14.5 | 0.00 | 0.00 | 0.00 | 35 | 1007.1 |
| 20260504211742 | 22 | 222 | 0.0 | 6.4 | 0.00 | 0.00 | 0.00 | 36 | 1007.1 |
| 20260504211720 | 22 | 190 | 0.0 | 6.4 | 0.00 | 0.00 | 0.00 | 36 | 1007.1 |
| 20260504211643 | 22 | 225 | 0.0 | 6.4 | 0.00 | 0.00 | 0.00 | 37 | 1007.1 |
| 20260504211542 | 22 | 222 | 0.0 | 6.4 | 0.00 | 0.00 | 0.00 | 36 | 1007.2 |
| 20260504211521 | 22 | 214 | 0.0 | 4.8 | 0.00 | 0.00 | 0.00 | 35 | 1006.8 |
| 20260504211442 | 22 | 199 | 0.0 | 6.4 | 0.00 | 0.00 | 0.00 | 35 | 1007.1 |
| 20260504211340 | 22 | 225 | 0.0 | 11.3 | 0.00 | 0.00 | 0.00 | 34 | 1007.1 |
| 20260504211240 | 22 | 250 | 0.0 | 11.3 | 0.00 | 0.00 | 0.00 | 35 | 1007.1 |
| 20260504211221 | 22 | 230 | 0.0 | 11.3 | 0.00 | 0.00 | 0.00 | 35 | 1007.1 |
| 20260504211153 | 22 | 237 | 1.6 | 16.1 | 0.00 | 0.00 | 0.00 | 35 | 1007.1 |
| 20260504211148 | 22 | 199 | 0.0 | 11.3 | 0.00 | 0.00 | 0.00 | 34 | 1007.1 |
| 20260504211020 | 22 | 205 | 0.0 | 14.5 | 0.00 | 0.00 | 0.00 | 35 | 1006.8 |
| 20260504210937 | 22 | 211 | 1.6 | 16.1 | 0.00 | 0.00 | 0.00 | 35 | 1007.1 |
| 20260504210851 | 22 | 205 | 1.6 | 16.1 | 0.00 | 0.00 | 0.00 | 34 | 1007.1 |
| 20260504210846 | 22 | 198 | 1.6 | 16.1 | 0.00 | 0.00 | 0.00 | 35 | 1007.1 |
| 20260504210719 | 22 | 193 | 1.6 | 16.1 | 0.00 | 0.00 | 0.00 | 34 | 1007.1 |
| 20260504210636 | 22 | 180 | 1.6 | 16.1 | 0.00 | 0.00 | 0.00 | 34 | 1007.1 |
| 20260504210551 | 22 | 217 | 1.6 | 16.1 | 0.00 | 0.00 | 0.00 | 35 | 1007.2 |
| 20260504210545 | 22 | 183 | 1.6 | 16.1 | 0.00 | 0.00 | 0.00 | 35 | 1007.1 |
| 20260504210520 | 22 | 190 | 0.0 | 14.5 | 0.00 | 0.00 | 0.00 | 35 | 1006.9 |
| 20260504210409 | 22 | 179 | 1.6 | 16.1 | 0.00 | 0.00 | 0.00 | 35 | 1007.1 |
| 20260504210405 | 22 | 196 | 1.6 | 16.1 | 0.00 | 0.00 | 0.00 | 34 | 1007.1 |
| 20260504210359 | 22 | 209 | 1.6 | 16.1 | 0.00 | 0.00 | 0.00 | 35 | 1007.2 |
| 20260504210243 | 22 | 196 | 1.6 | 16.1 | 0.00 | 0.00 | 0.00 | 35 | 1007.1 |
| 20260504210035 | 23 | 186 | 1.6 | 12.9 | 0.00 | 0.00 | 0.00 | 34 | 1007.1 |
| 20260504210020 | 23 | 178 | 8.0 | 12.9 | 0.00 | 0.00 | 0.00 | 34 | 1006.8 |
| 20260504205934 | 23 | 211 | 0.0 | 12.9 | 0.00 | 0.00 | 0.00 | 34 | 1007.1 |
| 20260504205834 | 23 | 192 | 0.0 | 12.9 | 0.00 | 0.00 | 0.00 | 34 | 1007.1 |
| 20260504205733 | 23 | 178 | 0.0 | 12.9 | 0.00 | 0.00 | 0.00 | 34 | 1007.1 |
| 20260504205720 | 23 | 171 | 0.0 | 12.9 | 0.00 | 0.00 | 0.00 | 34 | 1007.1 |
| 20260504205646 | 23 | 214 | 0.0 | 12.9 | 0.00 | 0.00 | 0.00 | 33 | 1007.1 |
| 20260504205640 | 23 | 201 | 0.0 | 12.9 | 0.00 | 0.00 | 0.00 | 34 | 1007.1 |
| 20260504205520 | 23 | 263 | 6.4 | 11.3 | 0.00 | 0.00 | 0.00 | 33 | 1006.8 |
| 20260504205454 | 23 | 194 | 0.0 | 4.8 | 0.00 | 0.00 | 0.00 | 34 | 1007.2 |
| 20260504205449 | 23 | 188 | 0.0 | 4.8 | 0.00 | 0.00 | 0.00 | 35 | 1007.2 |
| 20260504205444 | 23 | 211 | 0.0 | 4.8 | 0.00 | 0.00 | 0.00 | 34 | 1007.1 |
| 20260504205435 | 23 | 208 | 0.0 | 4.8 | 0.00 | 0.00 | 0.00 | 34 | 1007.2 |
| 20260504205128 | 23 | 211 | 0.0 | 6.4 | 0.00 | 0.00 | 0.00 | 34 | 1007.1 |
| 20260504205050 | 23 | 227 | 0.0 | 6.4 | 0.00 | 0.00 | 0.00 | 35 | 1006.8 |
| 20260504205028 | 23 | 224 | 0.0 | 6.4 | 0.00 | 0.00 | 0.00 | 35 | 1007.2 |
| 20260504204928 | 23 | 209 | 0.0 | 6.4 | 0.00 | 0.00 | 0.00 | 34 | 1007.1 |
| 20260504204826 | 23 | 219 | 0.0 | 6.4 | 0.00 | 0.00 | 0.00 | 34 | 1007.1 |
| 20260504204726 | 23 | 218 | 0.0 | 6.4 | 0.00 | 0.00 | 0.00 | 35 | 1007.1 |
| 20260504204717 | 23 | 195 | 0.0 | 6.4 | 0.00 | 0.00 | 0.00 | 35 | 1007.1 |
| 20260504204627 | 23 | 246 | 0.0 | 12.9 | 0.00 | 0.00 | 0.00 | 34 | 1007.1 |
| 20260504204548 | 23 | 269 | 0.0 | 12.9 | 0.00 | 0.00 | 0.00 | 34 | 1007.1 |
| 20260504204520 | 23 | 229 | 0.0 | 12.9 | 0.00 | 0.00 | 0.00 | 34 | 1006.8 |
| 20260504204434 | 23 | 262 | 0.0 | 12.9 | 0.00 | 0.00 | 0.00 | 34 | 1007.1 |
| 20260504204225 | 23 | 183 | 0.0 | 12.9 | 0.00 | 0.00 | 0.00 | 35 | 1007.1 |
| 20260504204217 | 23 | 194 | 0.0 | 12.9 | 0.00 | 0.00 | 0.00 | 35 | 1007.1 |
| 20260504204137 | 23 | 225 | 0.0 | 12.9 | 0.00 | 0.00 | 0.00 | 34 | 1007.2 |
| 20260504204132 | 23 | 195 | 0.0 | 12.9 | 0.00 | 0.00 | 0.00 | 34 | 1007.2 |
| 20260504204035 | 23 | 229 | 0.0 | 12.9 | 0.00 | 0.00 | 0.00 | 34 | 1006.8 |
| 20260504203936 | 23 | 236 | 0.0 | 12.9 | 0.00 | 0.00 | 0.00 | 35 | 1007.2 |
| 20260504203931 | 23 | 234 | 0.0 | 12.9 | 0.00 | 0.00 | 0.00 | 34 | 1007.1 |
| 20260504203723 | 23 | 243 | 0.0 | 12.9 | 0.00 | 0.00 | 0.00 | 34 | 1007.2 |
| 20260504203717 | 23 | 238 | 0.0 | 12.9 | 0.00 | 0.00 | 0.00 | 34 | 1007.2 |
| 20260504203621 | 23 | 261 | 0.0 | 11.3 | 0.00 | 0.00 | 0.00 | 34 | 1007.2 |
| 20260504203614 | 23 | 187 | 0.0 | 11.3 | 0.00 | 0.00 | 0.00 | 34 | 1007.1 |
| 20260504203608 | 23 | 225 | 0.0 | 11.3 | 0.00 | 0.00 | 0.00 | 34 | 1007.2 |
| 20260504203520 | 23 | 197 | 0.0 | 11.3 | 0.00 | 0.00 | 0.00 | 33 | 1006.9 |
| 20260504203455 | 23 | 227 | 0.0 | 6.4 | 0.00 | 0.00 | 0.00 | 34 | 1007.2 |
| 20260504203451 | 23 | 207 | 0.0 | 6.4 | 0.00 | 0.00 | 0.00 | 33 | 1007.2 |
| 20260504203446 | 23 | 213 | 0.0 | 11.3 | 0.00 | 0.00 | 0.00 | 33 | 1007.2 |
| 20260504203332 | 23 | 179 | 0.0 | 11.3 | 0.00 | 0.00 | 0.00 | 33 | 1007.2 |
| 20260504203216 | 23 | 189 | 0.0 | 11.3 | 0.00 | 0.00 | 0.00 | 34 | 1007.1 |
| 20260504203208 | 23 | 234 | 0.0 | 6.4 | 0.00 | 0.00 | 0.00 | 33 | 1007.2 |
| 20260504203021 | 23 | 223 | 0.0 | 6.4 | 0.00 | 0.00 | 0.00 | 34 | 1006.9 |
| 20260504202832 | 23 | 199 | 0.0 | 6.4 | 0.00 | 0.00 | 0.00 | 34 | 1007.2 |
| 20260504202825 | 23 | 196 | 0.0 | 6.4 | 0.00 | 0.00 | 0.00 | 34 | 1007.2 |
| 20260504202606 | 23 | 226 | 0.0 | 3.2 | 0.00 | 0.00 | 0.00 | 34 | 1007.2 |
| 20260504202600 | 23 | 192 | 0.0 | 3.2 | 0.00 | 0.00 | 0.00 | 35 | 1007.2 |
| 20260504202520 | 23 | 238 | 0.0 | 3.2 | 0.00 | 0.00 | 0.00 | 35 | 1006.9 |
| 20260504202337 | 23 | 240 | 0.0 | 3.2 | 0.00 | 0.00 | 0.00 | 34 | 1007.2 |
| 20260504202223 | 23 | 226 | 0.0 | 3.2 | 0.00 | 0.00 | 0.00 | 34 | 1007.3 |
| 20260504202020 | 23 | 244 | 0.0 | 6.4 | 0.00 | 0.00 | 0.00 | 36 | 1007.0 |
| 20260504202013 | 23 | 279 | 0.0 | 6.4 | 0.00 | 0.00 | 0.00 | 36 | 1007.3 |
| 20260504201948 | 23 | 216 | 0.0 | 6.4 | 0.00 | 0.00 | 0.00 | 35 | 1007.3 |
| 20260504201913 | 23 | 276 | 0.0 | 6.4 | 0.00 | 0.00 | 0.00 | 34 | 1007.3 |
| 20260504201840 | 23 | 263 | 0.0 | 14.5 | 0.00 | 0.00 | 0.00 | 35 | 1007.3 |
| 20260504201835 | 23 | 213 | 0.0 | 6.4 | 0.00 | 0.00 | 0.00 | 35 | 1007.3 |
| 20260504201720 | 23 | 216 | 0.0 | 6.4 | 0.00 | 0.00 | 0.00 | 35 | 1007.3 |
| 20260504201550 | 23 | 215 | 0.0 | 14.5 | 0.00 | 0.00 | 0.00 | 34 | 1007.0 |
| 20260504201511 | 23 | 215 | 0.0 | 14.5 | 0.00 | 0.00 | 0.00 | 34 | 1007.3 |
| 20260504201410 | 23 | 213 | 0.0 | 14.5 | 0.00 | 0.00 | 0.00 | 34 | 1007.3 |
| 20260504201310 | 23 | 201 | 0.0 | 14.5 | 0.00 | 0.00 | 0.00 | 34 | 1007.3 |
| 20260504201215 | 23 | 210 | 0.0 | 14.5 | 0.00 | 0.00 | 0.00 | 34 | 1007.3 |
| 20260504201209 | 23 | 220 | 0.0 | 14.5 | 0.00 | 0.00 | 0.00 | 34 | 1007.3 |
| 20260504201108 | 23 | 216 | 1.6 | 14.5 | 0.00 | 0.00 | 0.00 | 34 | 1007.3 |
| 20260504201020 | 23 | 273 | 1.6 | 19.3 | 0.00 | 0.00 | 0.00 | 34 | 1007.0 |
| 20260504201008 | 23 | 258 | 1.6 | 19.3 | 0.00 | 0.00 | 0.00 | 34 | 1007.3 |
| 20260504200921 | 23 | 200 | 1.6 | 19.3 | 0.00 | 0.00 | 0.00 | 34 | 1007.4 |
| 20260504200916 | 23 | 203 | 0.0 | 19.3 | 0.00 | 0.00 | 0.00 | 34 | 1007.3 |
| 20260504200715 | 23 | 226 | 1.6 | 19.3 | 0.00 | 0.00 | 0.00 | 34 | 1007.5 |
| 20260504200706 | 23 | 192 | 1.6 | 19.3 | 0.00 | 0.00 | 0.00 | 34 | 1007.5 |
| 20260504200606 | 23 | 220 | 1.6 | 19.3 | 0.00 | 0.00 | 0.00 | 34 | 1007.5 |
| 20260504200520 | 23 | 209 | 0.0 | 19.3 | 0.00 | 0.00 | 0.00 | 34 | 1007.2 |
| 20260504200506 | 23 | 235 | 1.6 | 19.3 | 0.00 | 0.00 | 0.00 | 34 | 1007.5 |
| 20260504200405 | 23 | 203 | 1.6 | 19.3 | 0.00 | 0.00 | 0.00 | 33 | 1007.4 |
| 20260504200304 | 23 | 201 | 1.6 | 19.3 | 0.00 | 0.00 | 0.00 | 33 | 1007.5 |
| 20260504200214 | 23 | 221 | 1.6 | 19.3 | 0.00 | 0.00 | 0.00 | 33 | 1007.5 |
| 20260504200203 | 23 | 184 | 1.6 | 19.3 | 0.00 | 0.00 | 0.00 | 33 | 1007.5 |
| 20260504200020 | 23 | 192 | 0.0 | 14.5 | 0.00 | 0.00 | 0.00 | 35 | 1007.2 |
| 20260504200002 | 23 | 244 | 1.6 | 14.5 | 0.00 | 0.00 | 0.00 | 35 | 1007.5 |
| 20260504195901 | 23 | 204 | 1.6 | 14.5 | 0.00 | 0.00 | 0.00 | 35 | 1007.5 |
| 20260504195800 | 23 | 49 | 0.0 | 14.5 | 0.00 | 0.00 | 0.00 | 34 | 1007.5 |
| 20260504195718 | 23 | 261 | 0.0 | 6.4 | 0.00 | 0.00 | 0.00 | 34 | 1007.6 |
| 20260504195714 | 23 | 225 | 0.0 | 14.5 | 0.00 | 0.00 | 0.00 | 35 | 1007.5 |
| 20260504195708 | 23 | 237 | 0.0 | 6.4 | 0.00 | 0.00 | 0.00 | 35 | 1007.5 |
| 20260504195520 | 23 | 235 | 0.0 | 6.4 | 0.00 | 0.00 | 0.00 | 34 | 1007.2 |
| 20260504195458 | 23 | 232 | 0.0 | 6.4 | 0.00 | 0.00 | 0.00 | 35 | 1007.5 |
| 20260504195358 | 23 | 227 | 0.0 | 6.4 | 0.00 | 0.00 | 0.00 | 34 | 1007.6 |
| 20260504195257 | 23 | 259 | 0.0 | 8.0 | 0.00 | 0.00 | 0.00 | 35 | 1007.6 |
| 20260504195212 | 22 | 200 | 1.6 | 12.9 | 0.00 | 0.00 | 0.00 | 35 | 1007.6 |
| 20260504195157 | 22 | 242 | 1.6 | 19.3 | 0.00 | 0.00 | 0.00 | 35 | 1007.6 |
| 20260504195057 | 22 | 286 | 1.6 | 19.3 | 0.00 | 0.00 | 0.00 | 35 | 1007.5 |
| 20260504195035 | 22 | 248 | 0.0 | 19.3 | 0.00 | 0.00 | 0.00 | 35 | 1007.2 |
| 20260504194956 | 22 | 202 | 1.6 | 19.3 | 0.00 | 0.00 | 0.00 | 35 | 1007.5 |
| 20260504194910 | 22 | 164 | 1.6 | 19.3 | 0.00 | 0.00 | 0.00 | 35 | 1007.5 |
| 20260504194905 | 22 | 221 | 1.6 | 19.3 | 0.00 | 0.00 | 0.00 | 36 | 1007.6 |
| 20260504194712 | 22 | 234 | 1.6 | 19.3 | 0.00 | 0.00 | 0.00 | 35 | 1007.6 |
| 20260504194655 | 22 | 228 | 1.6 | 19.3 | 0.00 | 0.00 | 0.00 | 35 | 1007.6 |
| 20260504194554 | 22 | 257 | 1.6 | 19.3 | 0.00 | 0.00 | 0.00 | 34 | 1007.5 |
| 20260504194535 | 22 | 180 | 0.0 | 19.3 | 0.00 | 0.00 | 0.00 | 36 | 1007.2 |
| 20260504194453 | 22 | 227 | 1.6 | 19.3 | 0.00 | 0.00 | 0.00 | 35 | 1007.5 |
| 20260504194406 | 22 | 173 | 1.6 | 19.3 | 0.00 | 0.00 | 0.00 | 34 | 1007.5 |
| 20260504194401 | 22 | 227 | 1.6 | 19.3 | 0.00 | 0.00 | 0.00 | 34 | 1007.6 |
| 20260504194212 | 22 | 159 | 0.0 | 19.3 | 0.00 | 0.00 | 0.00 | 35 | 1007.5 |
| 20260504194151 | 22 | 184 | 0.0 | 14.5 | 0.00 | 0.00 | 0.00 | 35 | 1007.5 |
| 20260504194051 | 22 | 192 | 0.0 | 14.5 | 0.00 | 0.00 | 0.00 | 34 | 1007.6 |
| 20260504194020 | 22 | 175 | 0.0 | 14.5 | 0.00 | 0.00 | 0.00 | 34 | 1007.3 |
| 20260504193950 | 22 | 200 | 0.0 | 14.5 | 0.00 | 0.00 | 0.00 | 34 | 1007.6 |
| 20260504193901 | 22 | 215 | 0.0 | 14.5 | 0.00 | 0.00 | 0.00 | 33 | 1007.6 |
| 20260504193856 | 22 | 208 | 0.0 | 14.5 | 0.00 | 0.00 | 0.00 | 33 | 1007.6 |
| 20260504193712 | 22 | 219 | 0.0 | 14.5 | 0.00 | 0.00 | 0.00 | 35 | 1007.7 |
| 20260504193646 | 22 | 190 | 0.0 | 8.0 | 0.00 | 0.00 | 0.00 | 35 | 1007.7 |
| 20260504193634 | 22 | 256 | 0.0 | 8.0 | 0.00 | 0.00 | 0.00 | 37 | 1007.6 |
| 20260504193522 | 22 | 92 | 1.6 | 14.5 | 0.00 | 0.00 | 0.00 | 35 | 1007.6 |
| 20260504193520 | 22 | 196 | 0.0 | 12.9 | 0.00 | 0.00 | 0.00 | 36 | 1007.3 |
| 20260504193516 | 22 | 196 | 0.0 | 12.9 | 0.00 | 0.00 | 0.00 | 36 | 1007.6 |
| 20260504193403 | 22 | 195 | 1.6 | 12.9 | 0.00 | 0.00 | 0.00 | 35 | 1007.6 |
| 20260504193246 | 22 | 223 | 1.6 | 12.9 | 0.00 | 0.00 | 0.00 | 34 | 1007.6 |
| 20260504193239 | 22 | 226 | 1.6 | 12.9 | 0.00 | 0.00 | 0.00 | 36 | 1007.6 |
| 20260504193021 | 22 | 211 | 0.0 | 14.5 | 0.00 | 0.00 | 0.00 | 34 | 1007.3 |
| 20260504193018 | 22 | 174 | 0.0 | 14.5 | 0.00 | 0.00 | 0.00 | 34 | 1007.6 |
| 20260504193012 | 22 | 177 | 1.6 | 14.5 | 0.00 | 0.00 | 0.00 | 34 | 1007.6 |
| 20260504192746 | 22 | 186 | 0.0 | 14.5 | 0.00 | 0.00 | 0.00 | 33 | 1007.6 |
| 20260504192539 | 22 | 209 | 0.0 | 14.5 | 0.00 | 0.00 | 0.00 | 33 | 1007.6 |
| 20260504192520 | 22 | 207 | 0.0 | 14.5 | 0.00 | 0.00 | 0.00 | 32 | 1007.3 |
| 20260504192439 | 23 | 149 | 0.0 | 14.5 | 0.00 | 0.00 | 0.00 | 32 | 1007.6 |
| 20260504192338 | 23 | 186 | 0.0 | 14.5 | 0.00 | 0.00 | 0.00 | 33 | 1007.7 |
| 20260504192238 | 23 | 229 | 0.0 | 14.5 | 0.00 | 0.00 | 0.00 | 32 | 1007.7 |
| 20260504192210 | 23 | 186 | 0.0 | 14.5 | 0.00 | 0.00 | 0.00 | 32 | 1007.7 |
| 20260504192137 | 23 | 202 | 0.0 | 14.5 | 0.00 | 0.00 | 0.00 | 32 | 1007.7 |
| 20260504192037 | 23 | 190 | 0.0 | 8.0 | 0.00 | 0.00 | 0.00 | 33 | 1007.7 |
| 20260504192020 | 23 | 198 | 0.0 | 8.0 | 0.00 | 0.00 | 0.00 | 33 | 1007.4 |
| 20260504191934 | 23 | 224 | 0.0 | 8.0 | 0.00 | 0.00 | 0.00 | 32 | 1007.7 |
| 20260504191833 | 23 | 205 | 0.0 | 8.0 | 0.00 | 0.00 | 0.00 | 32 | 1007.7 |
| 20260504191733 | 23 | 242 | 0.0 | 8.0 | 0.00 | 0.00 | 0.00 | 34 | 1007.8 |
| 20260504191709 | 23 | 263 | 0.0 | 8.0 | 0.00 | 0.00 | 0.00 | 34 | 1007.8 |
| 20260504191632 | 23 | 240 | 0.0 | 8.0 | 0.00 | 0.00 | 0.00 | 34 | 1007.8 |
| 20260504191532 | 23 | 275 | 0.0 | 8.0 | 0.00 | 0.00 | 0.00 | 34 | 1007.9 |
| 20260504191520 | 23 | 203 | 0.0 | 8.0 | 0.00 | 0.00 | 0.00 | 34 | 1007.6 |
| 20260504191429 | 23 | 205 | 0.0 | 8.0 | 0.00 | 0.00 | 0.00 | 33 | 1007.9 |
| 20260504191329 | 23 | 208 | 0.0 | 8.0 | 0.00 | 0.00 | 0.00 | 32 | 1007.9 |
| 20260504191228 | 23 | 234 | 0.0 | 6.4 | 0.00 | 0.00 | 0.00 | 34 | 1007.9 |
| 20260504191210 | 23 | 151 | 0.0 | 6.4 | 0.00 | 0.00 | 0.00 | 34 | 1007.9 |
| 20260504191141 | 23 | 238 | 0.0 | 6.4 | 0.00 | 0.00 | 0.00 | 34 | 1007.8 |
| 20260504191136 | 23 | 182 | 0.0 | 6.4 | 0.00 | 0.00 | 0.00 | 33 | 1007.9 |
| 20260504191020 | 23 | 234 | 0.0 | 3.2 | 0.00 | 0.00 | 0.00 | 34 | 1007.6 |
| 20260504190931 | 23 | 240 | 0.0 | 1.6 | 0.00 | 0.00 | 0.00 | 33 | 1007.8 |
| 20260504190927 | 23 | 260 | 0.0 | 1.6 | 0.00 | 0.00 | 0.00 | 32 | 1007.9 |
| 20260504190920 | 23 | 217 | 0.0 | 1.6 | 0.00 | 0.00 | 0.00 | 33 | 1007.9 |
| 20260504190916 | 23 | 239 | 0.0 | 1.6 | 0.00 | 0.00 | 0.00 | 33 | 1007.9 |
| 20260504190910 | 23 | 209 | 0.0 | 1.6 | 0.00 | 0.00 | 0.00 | 32 | 1007.8 |
| 20260504190754 | 23 | 301 | 0.0 | 1.6 | 0.00 | 0.00 | 0.00 | 33 | 1007.9 |
| 20260504190642 | 23 | 241 | 0.0 | 1.6 | 0.00 | 0.00 | 0.00 | 33 | 1007.9 |
| 20260504190535 | 23 | 204 | 0.0 | 1.6 | 0.00 | 0.00 | 0.00 | 33 | 1007.6 |
| 20260504190325 | 23 | 156 | 0.0 | 1.6 | 0.00 | 0.00 | 0.00 | 34 | 1007.9 |
| 20260504190316 | 23 | 212 | 0.0 | 0.0 | 0.00 | 0.00 | 0.00 | 35 | 1007.9 |
| 20260504190121 | 23 | 228 | 0.0 | 3.2 | 0.00 | 0.00 | 0.00 | 34 | 1008.0 |
| 20260504190020 | 23 | 231 | 0.0 | 3.2 | 0.00 | 0.00 | 0.00 | 34 | 1007.7 |
| 20260504185948 | 23 | 217 | 0.0 | 3.2 | 0.00 | 0.00 | 0.00 | 37 | 1008.0 |
| 20260504185943 | 23 | 192 | 0.0 | 3.2 | 0.00 | 0.00 | 0.00 | 34 | 1008.0 |
| 20260504185938 | 23 | 234 | 0.0 | 3.2 | 0.00 | 0.00 | 0.00 | 35 | 1008.0 |
| 20260504185708 | 23 | 197 | 0.0 | 3.2 | 0.00 | 0.00 | 0.00 | 34 | 1008.1 |
| 20260504185633 | 23 | 209 | 0.0 | 3.2 | 0.00 | 0.00 | 0.00 | 33 | 1008.1 |
| 20260504185628 | 23 | 223 | 0.0 | 3.2 | 0.00 | 0.00 | 0.00 | 34 | 1008.1 |
| 20260504185520 | 23 | 209 | 0.0 | 3.2 | 0.00 | 0.00 | 0.00 | 33 | 1007.8 |
| 20260504185418 | 23 | 188 | 0.0 | 3.2 | 0.00 | 0.00 | 0.00 | 34 | 1008.1 |
| 20260504185316 | 23 | 186 | 0.0 | 3.2 | 0.00 | 0.00 | 0.00 | 32 | 1008.1 |
| 20260504185235 | 22 | 247 | 0.0 | 3.2 | 0.00 | 0.00 | 0.00 | 36 | 1008.2 |
| 20260504185230 | 23 | 211 | 0.0 | 3.2 | 0.00 | 0.00 | 0.00 | 33 | 1008.1 |
| 20260504185223 | 23 | 227 | 0.0 | 3.2 | 0.00 | 0.00 | 0.00 | 33 | 1008.2 |
| 20260504185020 | 22 | 194 | 0.0 | 1.6 | 0.00 | 0.00 | 0.00 | 35 | 1007.9 |
| 20260504185016 | 22 | 194 | 0.0 | 4.8 | 0.00 | 0.00 | 0.00 | 37 | 1008.2 |
| 20260504184915 | 22 | 221 | 0.0 | 4.8 | 0.00 | 0.00 | 0.00 | 34 | 1008.2 |
| 20260504184814 | 22 | 279 | 0.0 | 6.4 | 0.00 | 0.00 | 0.00 | 33 | 1008.2 |
| 20260504184714 | 22 | 197 | 0.0 | 6.4 | 0.00 | 0.00 | 0.00 | 33 | 1008.2 |
| 20260504184706 | 22 | 232 | 0.0 | 6.4 | 0.00 | 0.00 | 0.00 | 33 | 1008.2 |
| 20260504184613 | 22 | 226 | 0.0 | 6.4 | 0.00 | 0.00 | 0.00 | 33 | 1008.2 |
| 20260504184520 | 22 | 277 | 0.0 | 20.9 | 0.00 | 0.00 | 0.00 | 34 | 1008.0 |
| 20260504184513 | 22 | 233 | 0.0 | 20.9 | 0.00 | 0.00 | 0.00 | 34 | 1008.3 |
| 20260504184411 | 22 | 236 | 1.6 | 20.9 | 0.00 | 0.00 | 0.00 | 37 | 1008.3 |
| 20260504184312 | 22 | 267 | 1.6 | 20.9 | 0.00 | 0.00 | 0.00 | 35 | 1008.3 |
| 20260504184251 | 22 | 183 | 1.6 | 20.9 | 0.00 | 0.00 | 0.00 | 33 | 1008.3 |
| 20260504184238 | 22 | 245 | 1.6 | 20.9 | 0.00 | 0.00 | 0.00 | 34 | 1008.2 |
| 20260504184020 | 22 | 252 | 0.0 | 20.9 | 0.00 | 0.00 | 0.00 | 32 | 1007.9 |
| 20260504184018 | 22 | 229 | 1.6 | 20.9 | 0.00 | 0.00 | 0.00 | 32 | 1008.3 |
| 20260504184013 | 22 | 237 | 1.6 | 20.9 | 0.00 | 0.00 | 0.00 | 32 | 1008.2 |
| 20260504184004 | 22 | 182 | 1.6 | 20.9 | 0.00 | 0.00 | 0.00 | 34 | 1008.3 |
| 20260504183845 | 22 | 229 | 1.6 | 20.9 | 0.00 | 0.00 | 0.00 | 32 | 1008.3 |
| 20260504183628 | 23 | 200 | 0.0 | 12.9 | 0.00 | 0.00 | 0.00 | 32 | 1008.4 |
| 20260504183622 | 23 | 173 | 0.0 | 20.9 | 0.00 | 0.00 | 0.00 | 32 | 1008.3 |
| 20260504183535 | 23 | 134 | 1.6 | 11.3 | 0.00 | 0.00 | 0.00 | 34 | 1008.0 |
| 20260504183345 | 23 | 178 | 0.0 | 9.7 | 0.00 | 0.00 | 0.00 | 34 | 1008.4 |
| 20260504183339 | 23 | 202 | 0.0 | 11.3 | 0.00 | 0.00 | 0.00 | 34 | 1008.4 |
| 20260504183226 | 23 | 255 | 0.0 | 11.3 | 0.00 | 0.00 | 0.00 | 33 | 1008.4 |
| 20260504183220 | 23 | 255 | 0.0 | 11.3 | 0.00 | 0.00 | 0.00 | 33 | 1008.4 |
| 20260504183020 | 23 | 190 | 1.6 | 9.7 | 0.00 | 0.00 | 0.00 | 33 | 1008.2 |
| 20260504182901 | 23 | 225 | 0.0 | 8.0 | 0.00 | 0.00 | 0.00 | 34 | 1008.5 |
| 20260504182814 | 23 | 194 | 0.0 | 8.0 | 0.00 | 0.00 | 0.00 | 33 | 1008.4 |
| 20260504182707 | 23 | 244 | 0.0 | 8.0 | 0.00 | 0.00 | 0.00 | 33 | 1008.4 |
| 20260504182701 | 23 | 243 | 0.0 | 8.0 | 0.00 | 0.00 | 0.00 | 33 | 1008.4 |
| 20260504182559 | 23 | 300 | 0.0 | 14.5 | 0.00 | 0.00 | 0.00 | 34 | 1008.4 |
| 20260504182520 | 23 | 237 | 0.0 | 14.5 | 0.00 | 0.00 | 0.00 | 34 | 1008.1 |
| 20260504182458 | 23 | 237 | 0.0 | 14.5 | 0.00 | 0.00 | 0.00 | 34 | 1008.4 |
| 20260504182438 | 22 | 239 | 0.0 | 14.5 | 0.00 | 0.00 | 0.00 | 35 | 1008.5 |
| 20260504182434 | 22 | 244 | 0.0 | 14.5 | 0.00 | 0.00 | 0.00 | 35 | 1008.5 |
| 20260504182428 | 22 | 253 | 0.0 | 14.5 | 0.00 | 0.00 | 0.00 | 33 | 1008.6 |
| 20260504182423 | 22 | 241 | 0.0 | 14.5 | 0.00 | 0.00 | 0.00 | 34 | 1008.4 |
| 20260504182159 | 22 | 240 | 0.0 | 14.5 | 0.00 | 0.00 | 0.00 | 33 | 1008.5 |
| 20260504182035 | 22 | 228 | 4.8 | 14.5 | 0.00 | 0.00 | 0.00 | 33 | 1008.2 |
| 20260504182028 | 22 | 243 | 0.0 | 14.5 | 0.00 | 0.00 | 0.00 | 33 | 1008.5 |
| 20260504181849 | 22 | 188 | 0.0 | 14.5 | 0.00 | 0.00 | 0.00 | 31 | 1008.6 |
| 20260504181809 | 23 | 178 | 0.0 | 14.5 | 0.00 | 0.00 | 0.00 | 33 | 1008.5 |
| 20260504181646 | 23 | 184 | 0.0 | 14.5 | 0.00 | 0.00 | 0.00 | 34 | 1008.5 |
| 20260504181559 | 23 | 178 | 0.0 | 11.3 | 0.00 | 0.00 | 0.00 | 35 | 1008.5 |
| 20260504181554 | 23 | 218 | 0.0 | 11.3 | 0.00 | 0.00 | 0.00 | 32 | 1008.6 |
| 20260504181520 | 23 | 202 | 0.0 | 11.3 | 0.00 | 0.00 | 0.00 | 32 | 1008.2 |
| 20260504181342 | 23 | 222 | 1.6 | 19.3 | 0.00 | 0.00 | 0.00 | 32 | 1008.5 |
| 20260504181241 | 23 | 264 | 1.6 | 19.3 | 0.00 | 0.00 | 0.00 | 32 | 1008.6 |
| 20260504181201 | 23 | 286 | 1.6 | 19.3 | 0.00 | 0.00 | 0.00 | 33 | 1008.6 |
| 20260504181140 | 23 | 212 | 1.6 | 19.3 | 0.00 | 0.00 | 0.00 | 34 | 1008.6 |
| 20260504181054 | 23 | 252 | 1.6 | 19.3 | 0.00 | 0.00 | 0.00 | 33 | 1008.7 |
| 20260504181049 | 23 | 194 | 1.6 | 19.3 | 0.00 | 0.00 | 0.00 | 33 | 1008.7 |
| 20260504181035 | 23 | 182 | 0.0 | 19.3 | 0.00 | 0.00 | 0.00 | 33 | 1008.4 |
| 20260504180928 | 23 | 263 | 0.0 | 19.3 | 0.00 | 0.00 | 0.00 | 33 | 1008.7 |
| 20260504180817 | 22 | 219 | 0.0 | 19.3 | 0.00 | 0.00 | 0.00 | 33 | 1008.6 |
| 20260504180812 | 22 | 242 | 0.0 | 3.2 | 0.00 | 0.00 | 0.00 | 34 | 1008.7 |
| 20260504180807 | 22 | 227 | 0.0 | 9.7 | 0.00 | 0.00 | 0.00 | 34 | 1008.7 |
| 20260504180803 | 22 | 229 | 0.0 | 9.7 | 0.00 | 0.00 | 0.00 | 33 | 1008.7 |
| 20260504180758 | 23 | 234 | 0.0 | 19.3 | 0.00 | 0.00 | 0.00 | 34 | 1008.7 |
| 20260504180750 | 22 | 240 | 0.0 | 19.3 | 0.00 | 0.00 | 0.00 | 33 | 1008.7 |
| 20260504180743 | 22 | 201 | 0.0 | 19.3 | 0.00 | 0.00 | 0.00 | 34 | 1008.7 |
| 20260504180519 | 22 | 217 | 0.0 | 19.3 | 0.00 | 0.00 | 0.00 | 34 | 1008.3 |
| 20260504180136 | 22 | 229 | 0.0 | 9.7 | 0.00 | 0.00 | 0.00 | 33 | 1008.7 |
| 20260504180035 | 22 | 292 | 0.0 | 9.7 | 0.00 | 0.00 | 0.00 | 33 | 1008.7 |
| 20260504180020 | 22 | 238 | 0.0 | 9.7 | 0.00 | 0.00 | 0.00 | 33 | 1008.5 |
| 20260504175933 | 22 | 199 | 0.0 | 9.7 | 0.00 | 0.00 | 0.00 | 34 | 1008.8 |
| 20260504175834 | 22 | 246 | 0.0 | 9.7 | 0.00 | 0.00 | 0.00 | 34 | 1008.8 |
| 20260504175733 | 22 | 267 | 0.0 | 9.7 | 0.00 | 0.00 | 0.00 | 34 | 1008.8 |
| 20260504175659 | 22 | 288 | 0.0 | 9.7 | 0.00 | 0.00 | 0.00 | 33 | 1008.9 |
| 20260504175632 | 22 | 259 | 0.0 | 9.7 | 0.00 | 0.00 | 0.00 | 33 | 1008.9 |
| 20260504175532 | 22 | 286 | 0.0 | 9.7 | 0.00 | 0.00 | 0.00 | 35 | 1008.9 |
| 20260504175520 | 22 | 237 | 0.0 | 9.7 | 0.00 | 0.00 | 0.00 | 35 | 1008.6 |
| 20260504175431 | 22 | 255 | 0.0 | 9.7 | 0.00 | 0.00 | 0.00 | 34 | 1008.9 |
| 20260504175332 | 22 | 200 | 1.6 | 9.7 | 0.00 | 0.00 | 0.00 | 36 | 1009.0 |
| 20260504175250 | 22 | 209 | 0.0 | 12.9 | 0.00 | 0.00 | 0.00 | 32 | 1009.0 |
| 20260504175245 | 22 | 221 | 1.6 | 12.9 | 0.00 | 0.00 | 0.00 | 34 | 1009.0 |
| 20260504175237 | 22 | 200 | 0.0 | 12.9 | 0.00 | 0.00 | 0.00 | 32 | 1009.0 |
| 20260504175050 | 22 | 212 | 4.8 | 12.9 | 0.00 | 0.00 | 0.00 | 33 | 1008.7 |
| 20260504175030 | 22 | 231 | 0.0 | 12.9 | 0.00 | 0.00 | 0.00 | 33 | 1009.0 |
| 20260504174929 | 22 | 200 | 0.0 | 12.9 | 0.00 | 0.00 | 0.00 | 33 | 1009.0 |
| 20260504174922 | 22 | 194 | 0.0 | 12.9 | 0.00 | 0.00 | 0.00 | 31 | 1008.9 |
| 20260504174827 | 22 | 166 | 0.0 | 12.9 | 0.00 | 0.00 | 0.00 | 32 | 1008.9 |
| 20260504174806 | 22 | 184 | 0.0 | 12.9 | 0.00 | 0.00 | 0.00 | 32 | 1009.0 |
| 20260504174624 | 22 | 198 | 0.0 | 12.9 | 0.00 | 0.00 | 0.00 | 31 | 1008.9 |
| 20260504174525 | 22 | 192 | 0.0 | 12.9 | 0.00 | 0.00 | 0.00 | 32 | 1009.0 |
| 20260504174520 | 22 | 208 | 0.0 | 12.9 | 0.00 | 0.00 | 0.00 | 32 | 1008.7 |
| 20260504174424 | 22 | 200 | 0.0 | 12.9 | 0.00 | 0.00 | 0.00 | 33 | 1009.0 |
| 20260504174324 | 22 | 200 | 1.6 | 32.2 | 0.00 | 0.00 | 0.00 | 34 | 1009.0 |
| 20260504174223 | 22 | 193 | 0.0 | 32.2 | 0.00 | 0.00 | 0.00 | 32 | 1009.1 |
| 20260504174158 | 22 | 190 | 1.6 | 32.2 | 0.00 | 0.00 | 0.00 | 32 | 1009.1 |
| 20260504174123 | 22 | 220 | 1.6 | 32.2 | 0.00 | 0.00 | 0.00 | 34 | 1009.1 |
| 20260504174022 | 22 | 206 | 1.6 | 32.2 | 0.00 | 0.00 | 0.00 | 34 | 1009.1 |
| 20260504174020 | 22 | 173 | 0.0 | 32.2 | 0.00 | 0.00 | 0.00 | 32 | 1008.8 |
| 20260504173922 | 22 | 208 | 1.6 | 32.2 | 0.00 | 0.00 | 0.00 | 32 | 1009.1 |
| 20260504173821 | 22 | 254 | 1.6 | 32.2 | 0.00 | 0.00 | 0.00 | 33 | 1009.1 |
| 20260504173722 | 22 | 197 | 1.6 | 32.2 | 0.00 | 0.00 | 0.00 | 32 | 1009.1 |
| 20260504173656 | 22 | 221 | 1.6 | 32.2 | 0.00 | 0.00 | 0.00 | 32 | 1009.2 |
| 20260504173622 | 22 | 203 | 1.6 | 32.2 | 0.00 | 0.00 | 0.00 | 32 | 1009.2 |
| 20260504173520 | 22 | 229 | 1.6 | 32.2 | 0.00 | 0.00 | 0.00 | 33 | 1009.1 |
| 20260504173420 | 22 | 238 | 1.6 | 32.2 | 0.00 | 0.00 | 0.00 | 34 | 1009.2 |
| 20260504173352 | 22 | 270 | 0.0 | 19.3 | 0.00 | 0.00 | 0.00 | 33 | 1009.2 |
| 20260504173346 | 22 | 254 | 0.0 | 19.3 | 0.00 | 0.00 | 0.00 | 35 | 1009.2 |
| 20260504173341 | 22 | 232 | 0.0 | 12.9 | 0.00 | 0.00 | 0.00 | 33 | 1009.1 |
| 20260504173225 | 22 | 253 | 0.0 | 19.3 | 0.00 | 0.00 | 0.00 | 33 | 1009.2 |
| 20260504173019 | 22 | 253 | 0.0 | 19.3 | 0.00 | 0.00 | 0.00 | 35 | 1009.0 |
| 20260504173017 | 22 | 242 | 0.0 | 19.3 | 0.00 | 0.00 | 0.00 | 35 | 1009.3 |
| 20260504172917 | 22 | 242 | 0.0 | 19.3 | 0.00 | 0.00 | 0.00 | 34 | 1009.3 |
| 20260504172815 | 22 | 214 | 0.0 | 19.3 | 0.00 | 0.00 | 0.00 | 34 | 1009.2 |
| 20260504172715 | 22 | 158 | 0.0 | 19.3 | 0.00 | 0.00 | 0.00 | 35 | 1009.2 |
| 20260504172655 | 22 | 200 | 0.0 | 19.3 | 0.00 | 0.00 | 0.00 | 35 | 1009.2 |
| 20260504172614 | 22 | 212 | 0.0 | 19.3 | 0.00 | 0.00 | 0.00 | 33 | 1009.3 |
| 20260504172534 | 22 | 173 | 0.0 | 19.3 | 0.00 | 0.00 | 0.00 | 32 | 1009.0 |
| 20260504172514 | 22 | 182 | 0.0 | 19.3 | 0.00 | 0.00 | 0.00 | 32 | 1009.3 |
| 20260504172413 | 22 | 241 | 0.0 | 19.3 | 0.00 | 0.00 | 0.00 | 33 | 1009.3 |
| 20260504172312 | 22 | 194 | 0.0 | 19.3 | 0.00 | 0.00 | 0.00 | 33 | 1009.3 |
| 20260504172212 | 22 | 206 | 0.0 | 9.7 | 0.00 | 0.00 | 0.00 | 35 | 1009.3 |
| 20260504172156 | 22 | 194 | 0.0 | 9.7 | 0.00 | 0.00 | 0.00 | 35 | 1009.3 |
| 20260504172111 | 22 | 151 | 0.0 | 1.6 | 0.00 | 0.00 | 0.00 | 34 | 1009.3 |
| 20260504172020 | 22 | 229 | 0.0 | 1.6 | 0.00 | 0.00 | 0.00 | 34 | 1009.0 |
| 20260504172010 | 22 | 229 | 0.0 | 1.6 | 0.00 | 0.00 | 0.00 | 34 | 1009.3 |
| 20260504171924 | 22 | 153 | 0.0 | 12.9 | 0.00 | 0.00 | 0.00 | 35 | 1009.3 |
| 20260504171918 | 22 | 219 | 0.0 | 1.6 | 0.00 | 0.00 | 0.00 | 37 | 1009.3 |
| 20260504171709 | 21 | 215 | 0.0 | 12.9 | 0.00 | 0.00 | 0.00 | 35 | 1009.3 |
| 20260504171655 | 21 | 189 | 0.0 | 12.9 | 0.00 | 0.00 | 0.00 | 35 | 1009.3 |
| 20260504171608 | 21 | 186 | 0.0 | 16.1 | 0.00 | 0.00 | 0.00 | 35 | 1009.4 |
| 20260504171519 | 21 | 196 | 0.0 | 14.5 | 0.00 | 0.00 | 0.00 | 36 | 1009.0 |
| 20260504171508 | 21 | 196 | 0.0 | 16.1 | 0.00 | 0.00 | 0.00 | 36 | 1009.3 |
| 20260504171419 | 21 | 167 | 0.0 | 16.1 | 0.00 | 0.00 | 0.00 | 33 | 1009.4 |
| 20260504171414 | 21 | 215 | 0.0 | 16.1 | 0.00 | 0.00 | 0.00 | 34 | 1009.3 |
| 20260504171204 | 22 | 194 | 0.0 | 16.1 | 0.00 | 0.00 | 0.00 | 33 | 1009.4 |
| 20260504171155 | 22 | 159 | 0.0 | 16.1 | 0.00 | 0.00 | 0.00 | 34 | 1009.4 |
| 20260504171105 | 21 | 173 | 0.0 | 16.1 | 0.00 | 0.00 | 0.00 | 35 | 1009.4 |
| 20260504171020 | 21 | 223 | 0.0 | 14.5 | 0.00 | 0.00 | 0.00 | 34 | 1009.1 |
| 20260504171018 | 21 | 288 | 1.6 | 16.1 | 0.00 | 0.00 | 0.00 | 35 | 1009.4 |
| 20260504171013 | 21 | 221 | 1.6 | 16.1 | 0.00 | 0.00 | 0.00 | 34 | 1009.4 |
| 20260504170803 | 21 | 222 | 1.6 | 16.1 | 0.00 | 0.00 | 0.00 | 36 | 1009.5 |
| 20260504170655 | 21 | 233 | 1.6 | 16.1 | 0.00 | 0.00 | 0.00 | 34 | 1009.5 |
| 20260504170629 | 21 | 196 | 0.0 | 14.5 | 0.00 | 0.00 | 0.00 | 34 | 1009.5 |
| 20260504170625 | 21 | 189 | 0.0 | 14.5 | 0.00 | 0.00 | 0.00 | 34 | 1009.5 |
| 20260504170619 | 21 | 217 | 0.0 | 14.5 | 0.00 | 0.00 | 0.00 | 33 | 1009.5 |
| 20260504170519 | 21 | 189 | 1.6 | 14.5 | 0.00 | 0.00 | 0.00 | 33 | 1009.2 |
| 20260504170316 | 21 | 194 | 0.0 | 14.5 | 0.00 | 0.00 | 0.00 | 33 | 1009.6 |
| 20260504170310 | 21 | 236 | 0.0 | 14.5 | 0.00 | 0.00 | 0.00 | 32 | 1009.5 |
| 20260504170154 | 21 | 216 | 0.0 | 14.5 | 0.00 | 0.00 | 0.00 | 33 | 1009.6 |
| 20260504160444 | 21 | 226 | 0.0 | 19.3 | 0.00 | 0.00 | 0.00 | 33 | 1010.2 |
| 20260504160440 | 21 | 248 | 0.0 | 19.3 | 0.00 | 0.00 | 0.00 | 32 | 1010.2 |
| 20260504160229 | 21 | 239 | 0.0 | 6.4 | 0.00 | 0.00 | 0.00 | 34 | 1010.2 |
| 20260504160143 | 21 | 273 | 0.0 | 6.4 | 0.00 | 0.00 | 0.00 | 34 | 1010.2 |
| 20260504160130 | 21 | 245 | 0.0 | 6.4 | 0.00 | 0.00 | 0.00 | 34 | 1010.2 |
| 20260504151107 | 20 | 306 | 0.0 | 11.3 | 0.00 | 0.00 | 0.00 | 39 | 1006.2 |
| 20260504151020 | 20 | 253 | 0.0 | 9.7 | 0.00 | 0.00 | 0.00 | 40 | 1006.0 |
| 20260504150921 | 20 | 270 | 0.0 | 11.3 | 0.00 | 0.00 | 0.00 | 40 | 1006.1 |
| 20260504150856 | 20 | 242 | 0.0 | 11.3 | 0.00 | 0.00 | 0.00 | 42 | 1006.1 |
| 20260504150824 | 20 | 235 | 0.0 | 11.3 | 0.00 | 0.00 | 0.00 | 38 | 1006.1 |
| 20260504150819 | 20 | 211 | 0.0 | 11.3 | 0.00 | 0.00 | 0.00 | 41 | 1006.1 |
| 20260504150809 | 20 | 229 | 0.0 | 11.3 | 0.00 | 0.00 | 0.00 | 40 | 1006.1 |
| 20260504150519 | 20 | 231 | 0.0 | 9.7 | 0.00 | 0.00 | 0.00 | 38 | 1005.9 |
| 20260504150507 | 20 | 248 | 0.0 | 11.3 | 0.00 | 0.00 | 0.00 | 41 | 1006.1 |
| 20260504150503 | 20 | 233 | 0.0 | 11.3 | 0.00 | 0.00 | 0.00 | 38 | 1006.1 |
| 20260504150255 | 20 | 182 | 0.0 | 11.3 | 0.00 | 0.00 | 0.00 | 39 | 1006.2 |
| 20260504150154 | 20 | 228 | 0.0 | 11.3 | 0.00 | 0.00 | 0.00 | 39 | 1006.2 |
| 20260504150134 | 20 | 235 | 0.0 | 11.3 | 0.00 | 0.00 | 0.00 | 39 | 1006.2 |
| 20260504150105 | 20 | 206 | 0.0 | 11.3 | 0.00 | 0.00 | 0.00 | 39 | 1006.2 |
| 20260504141324 | 17 | 169 | 0.0 | 12.9 | 0.00 | 0.00 | 0.00 | 49 | 1006.3 |
| 20260504141223 | 17 | 146 | 0.0 | 12.9 | 0.00 | 0.00 | 0.00 | 50 | 1006.3 |
| 20260504141142 | 17 | 239 | 0.0 | 9.7 | 0.00 | 0.00 | 0.00 | 53 | 1006.5 |
| 20260504141137 | 17 | 167 | 0.0 | 9.7 | 0.00 | 0.00 | 0.00 | 52 | 1006.4 |
| 20260504141131 | 17 | 178 | 0.0 | 9.7 | 0.00 | 0.00 | 0.00 | 52 | 1006.4 |
| 20260504141020 | 17 | 244 | 0.0 | 6.4 | 0.00 | 0.00 | 0.00 | 53 | 1006.3 |
| 20260504140921 | 17 | 204 | 0.0 | 9.7 | 0.00 | 0.00 | 0.00 | 53 | 1006.5 |
| 20260504140821 | 17 | 198 | 0.0 | 9.7 | 0.00 | 0.00 | 0.00 | 52 | 1006.5 |
| 20260504140721 | 17 | 157 | 0.0 | 9.7 | 0.00 | 0.00 | 0.00 | 52 | 1006.6 |
| 20260504140626 | 17 | 178 | 0.0 | 9.7 | 0.00 | 0.00 | 0.00 | 53 | 1006.6 |
| 20260504140620 | 17 | 173 | 0.0 | 9.7 | 0.00 | 0.00 | 0.00 | 53 | 1006.6 |
| 20260504140520 | 17 | 216 | 0.0 | 6.4 | 0.00 | 0.00 | 0.00 | 54 | 1006.4 |
| 20260504140420 | 17 | 190 | 0.0 | 6.4 | 0.00 | 0.00 | 0.00 | 53 | 1006.6 |
| 20260504140355 | 16 | 234 | 0.0 | 6.4 | 0.00 | 0.00 | 0.00 | 53 | 1006.5 |
| 20260504140349 | 16 | 231 | 0.0 | 6.4 | 0.00 | 0.00 | 0.00 | 54 | 1006.5 |
| 20260504140344 | 16 | 198 | 0.0 | 6.4 | 0.00 | 0.00 | 0.00 | 52 | 1006.6 |
| 20260504140116 | 16 | 234 | 0.0 | 6.4 | 0.00 | 0.00 | 0.00 | 53 | 1006.6 |
| 20260504130744 | 15 | 219 | 0.0 | 4.8 | 0.00 | 0.00 | 0.00 | 59 | 1008.2 |
| 20260504130728 | 15 | 242 | 0.0 | 4.8 | 0.00 | 0.00 | 0.00 | 59 | 1008.3 |
| 20260504130543 | 15 | 215 | 0.0 | 4.8 | 0.00 | 0.00 | 0.00 | 59 | 1008.2 |
| 20260504130520 | 15 | 235 | 0.0 | 4.8 | 0.00 | 0.00 | 0.00 | 59 | 1008.2 |
| 20260504130457 | 15 | 239 | 0.0 | 9.7 | 0.00 | 0.00 | 0.00 | 59 | 1008.3 |
| 20260504130452 | 15 | 199 | 0.0 | 9.7 | 0.00 | 0.00 | 0.00 | 60 | 1008.3 |
| 20260504130242 | 15 | 200 | 0.0 | 9.7 | 0.00 | 0.00 | 0.00 | 59 | 1008.4 |
| 20260504130141 | 15 | 279 | 0.0 | 9.7 | 0.00 | 0.00 | 0.00 | 58 | 1008.3 |
| 20260504130119 | 15 | 190 | 0.0 | 9.7 | 0.00 | 0.00 | 0.00 | 58 | 1008.3 |
| 20260504120136 | 13 | 215 | 0.0 | 1.6 | 0.00 | 0.00 | 0.00 | 63 | 1011.5 |
| 20260504110621 | 8 | 0 | 0.0 | 1.6 | 0.00 | 0.00 | 0.00 | 73 | 1012.2 |
| 20260504110520 | 8 | 360 | 0.0 | 1.6 | 0.00 | 0.00 | 0.00 | 74 | 1012.2 |
| 20260504110250 | 8 | 0 | 0.0 | 0.0 | 0.00 | 0.00 | 0.00 | 75 | 1012.1 |
| 20260504110109 | 8 | 0 | 0.0 | 0.0 | 0.00 | 0.00 | 0.00 | 75 | 1012.0 |
| 20260504100559 | 3 | 0 | 0.0 | 0.0 | 0.00 | 0.00 | 0.00 | 86 | 1011.8 |
| 20260504100520 | 3 | 360 | 0.0 | 0.0 | 0.00 | 0.00 | 0.00 | 86 | 1012.0 |
| 20260504100515 | 3 | 0 | 0.0 | 0.0 | 0.00 | 0.00 | 0.00 | 86 | 1011.8 |
| 20260504100415 | 3 | 0 | 0.0 | 0.0 | 0.00 | 0.00 | 0.00 | 87 | 1011.8 |
| 20260504100314 | 3 | 0 | 0.0 | 0.0 | 0.00 | 0.00 | 0.00 | 88 | 1011.9 |
| 20260504100214 | 3 | 0 | 0.0 | 0.0 | 0.00 | 0.00 | 0.00 | 88 | 1011.9 |
| 20260504100113 | 3 | 0 | 0.0 | 0.0 | 0.00 | 0.00 | 0.00 | 89 | 1011.9 |
| 20260504090137 | 2 | 227 | 0.0 | 0.0 | 0.00 | 0.00 | 0.00 | 89 | 1011.8 |
| 20260504081713 | 2 | 227 | 0.0 | 0.0 | 0.00 | 0.00 | 0.00 | 87 | 1011.9 |
| 20260504081613 | 2 | 227 | 0.0 | 0.0 | 0.00 | 0.00 | 0.00 | 87 | 1011.9 |
| 20260504081525 | 2 | 227 | 0.0 | 0.0 | 0.00 | 0.00 | 0.00 | 87 | 1011.9 |
| 20260504081521 | 2 | 227 | 0.0 | 0.0 | 0.00 | 0.00 | 0.00 | 87 | 1011.9 |
| 20260504081311 | 2 | 227 | 0.0 | 0.0 | 0.00 | 0.00 | 0.00 | 87 | 1011.9 |
| 20260504081210 | 2 | 227 | 0.0 | 0.0 | 0.00 | 0.00 | 0.00 | 87 | 1011.9 |
| 20260504081110 | 2 | 227 | 0.0 | 0.0 | 0.00 | 0.00 | 0.00 | 87 | 1011.9 |
| 20260504081042 | 2 | 227 | 0.0 | 0.0 | 0.00 | 0.00 | 0.00 | 87 | 1011.9 |
| 20260504081020 | 2 | 227 | 0.0 | 0.0 | 0.00 | 0.00 | 0.00 | 87 | 1012.1 |
| 20260504081009 | 2 | 227 | 0.0 | 0.0 | 0.00 | 0.00 | 0.00 | 87 | 1011.9 |
| 20260504080909 | 2 | 227 | 0.0 | 0.0 | 0.00 | 0.00 | 0.00 | 87 | 1011.9 |
| 20260504080817 | 2 | 227 | 0.0 | 0.0 | 0.00 | 0.00 | 0.00 | 87 | 1011.9 |
| 20260504080721 | 2 | 227 | 0.0 | 0.0 | 0.00 | 0.00 | 0.00 | 86 | 1011.9 |
| 20260504080717 | 2 | 227 | 0.0 | 0.0 | 0.00 | 0.00 | 0.00 | 86 | 1011.9 |
| 20260504080521 | 2 | 227 | 0.0 | 0.0 | 0.00 | 0.00 | 0.00 | 86 | 1012.0 |
| 20260504080517 | 2 | 227 | 0.0 | 0.0 | 0.00 | 0.00 | 0.00 | 86 | 1011.9 |
| 20260504080309 | 2 | 227 | 0.0 | 0.0 | 0.00 | 0.00 | 0.00 | 86 | 1011.9 |
| 20260504080302 | 2 | 227 | 0.0 | 0.0 | 0.00 | 0.00 | 0.00 | 86 | 1011.9 |
| 20260504080206 | 2 | 227 | 0.0 | 0.0 | 0.00 | 0.00 | 0.00 | 86 | 1011.9 |
| 20260504080148 | 2 | 227 | 0.0 | 0.0 | 0.00 | 0.00 | 0.00 | 86 | 1011.9 |
| 20260504070235 | 3 | 227 | 0.0 | 0.0 | 0.00 | 0.00 | 0.00 | 79 | 1011.9 |
| 20260504070134 | 3 | 227 | 0.0 | 0.0 | 0.00 | 0.00 | 0.00 | 79 | 1011.9 |
| 20260504060200 | 5 | 227 | 0.0 | 0.0 | 0.00 | 0.00 | 0.00 | 73 | 1011.8 |
| 20260504050640 | 7 | 227 | 0.0 | 0.0 | 0.00 | 0.00 | 0.00 | 63 | 1012.0 |
| 20260504050535 | 7 | 227 | 0.0 | 0.0 | 0.00 | 0.00 | 0.00 | 63 | 1012.0 |
| 20260504050514 | 7 | 227 | 0.0 | 0.0 | 0.00 | 0.00 | 0.00 | 63 | 1011.9 |
| 20260504050438 | 7 | 227 | 0.0 | 0.0 | 0.00 | 0.00 | 0.00 | 63 | 1011.9 |
| 20260504050339 | 7 | 227 | 0.0 | 0.0 | 0.00 | 0.00 | 0.00 | 62 | 1011.9 |
| 20260504050239 | 7 | 227 | 0.0 | 0.0 | 0.00 | 0.00 | 0.00 | 62 | 1011.9 |
| 20260504050139 | 7 | 227 | 0.0 | 0.0 | 0.00 | 0.00 | 0.00 | 61 | 1011.9 |
| 20260504050020 | 7 | 227 | 0.0 | 0.0 | 0.00 | 0.00 | 0.00 | 62 | 1012.0 |
| 20260504050013 | 7 | 227 | 0.0 | 0.0 | 0.00 | 0.00 | 0.00 | 62 | 1011.9 |
| 20260504045938 | 7 | 227 | 0.0 | 0.0 | 0.00 | 0.00 | 0.00 | 61 | 1011.9 |
| 20260504045838 | 7 | 227 | 0.0 | 0.0 | 0.00 | 0.00 | 0.00 | 61 | 1011.9 |
| 20260504045737 | 7 | 227 | 0.0 | 0.0 | 0.00 | 0.00 | 0.00 | 61 | 1011.9 |
| 20260504045634 | 7 | 227 | 0.0 | 0.0 | 0.00 | 0.00 | 0.00 | 61 | 1011.9 |
| 20260504045520 | 7 | 227 | 0.0 | 0.0 | 0.00 | 0.00 | 0.00 | 61 | 1012.0 |
| 20260504045513 | 7 | 227 | 0.0 | 0.0 | 0.00 | 0.00 | 0.00 | 61 | 1011.9 |
| 20260504045447 | 7 | 227 | 0.0 | 0.0 | 0.00 | 0.00 | 0.00 | 60 | 1011.9 |
| 20260504045443 | 7 | 227 | 0.0 | 0.0 | 0.00 | 0.00 | 0.00 | 61 | 1011.9 |
| 20260504045434 | 7 | 227 | 0.0 | 0.0 | 0.00 | 0.00 | 0.00 | 61 | 1011.9 |
| 20260504045320 | 7 | 227 | 0.0 | 0.0 | 0.00 | 0.00 | 0.00 | 60 | 1011.9 |
| 20260504045207 | 7 | 227 | 0.0 | 0.0 | 0.00 | 0.00 | 0.00 | 60 | 1011.9 |
| 20260504045158 | 7 | 227 | 0.0 | 0.0 | 0.00 | 0.00 | 0.00 | 60 | 1011.9 |
| 20260504045020 | 7 | 227 | 0.0 | 0.0 | 0.00 | 0.00 | 0.00 | 60 | 1012.0 |
| 20260504044733 | 8 | 227 | 0.0 | 0.0 | 0.00 | 0.00 | 0.00 | 60 | 1011.9 |
| 20260504044631 | 8 | 227 | 0.0 | 0.0 | 0.00 | 0.00 | 0.00 | 60 | 1011.8 |
| 20260504044531 | 8 | 227 | 0.0 | 0.0 | 0.00 | 0.00 | 0.00 | 60 | 1011.8 |
| 20260504044520 | 8 | 227 | 0.0 | 0.0 | 0.00 | 0.00 | 0.00 | 59 | 1011.9 |
| 20260504044510 | 8 | 227 | 0.0 | 0.0 | 0.00 | 0.00 | 0.00 | 59 | 1011.8 |
| 20260504044431 | 8 | 227 | 0.0 | 0.0 | 0.00 | 0.00 | 0.00 | 59 | 1011.8 |
| 20260504044330 | 8 | 227 | 0.0 | 0.0 | 0.00 | 0.00 | 0.00 | 59 | 1011.8 |
| 20260504044229 | 8 | 227 | 0.0 | 0.0 | 0.00 | 0.00 | 0.00 | 59 | 1011.8 |
| 20260504044128 | 8 | 227 | 0.0 | 0.0 | 0.00 | 0.00 | 0.00 | 59 | 1011.8 |
| 20260504044100 | 8 | 227 | 0.0 | 0.0 | 0.00 | 0.00 | 0.00 | 59 | 1011.8 |
| 20260504044056 | 8 | 227 | 0.0 | 0.0 | 0.00 | 0.00 | 0.00 | 58 | 1011.8 |
| 20260504044051 | 8 | 227 | 0.0 | 0.0 | 0.00 | 0.00 | 0.00 | 58 | 1011.8 |
| 20260504044043 | 8 | 227 | 0.0 | 0.0 | 0.00 | 0.00 | 0.00 | 59 | 1011.8 |
| 20260504044021 | 8 | 227 | 0.0 | 0.0 | 0.00 | 0.00 | 0.00 | 59 | 1011.9 |
| 20260504043724 | 8 | 227 | 0.0 | 0.0 | 0.00 | 0.00 | 0.00 | 57 | 1011.8 |
| 20260504043625 | 8 | 227 | 0.0 | 0.0 | 0.00 | 0.00 | 0.00 | 56 | 1011.8 |
| 20260504043525 | 8 | 227 | 0.0 | 0.0 | 0.00 | 0.00 | 0.00 | 57 | 1011.8 |
| 20260504043520 | 8 | 227 | 0.0 | 0.0 | 0.00 | 0.00 | 0.00 | 56 | 1011.9 |
| 20260504043506 | 8 | 227 | 0.0 | 0.0 | 0.00 | 0.00 | 0.00 | 56 | 1011.8 |
| 20260504043446 | 8 | 227 | 0.0 | 0.0 | 0.00 | 0.00 | 0.00 | 56 | 1011.8 |
| 20260504043333 | 8 | 227 | 0.0 | 0.0 | 0.00 | 0.00 | 0.00 | 56 | 1011.8 |
| 20260504043122 | 8 | 227 | 0.0 | 0.0 | 0.00 | 0.00 | 0.00 | 56 | 1011.8 |
| 20260504043020 | 8 | 227 | 0.0 | 0.0 | 0.00 | 0.00 | 0.00 | 55 | 1011.8 |
| 20260504043007 | 8 | 227 | 0.0 | 0.0 | 0.00 | 0.00 | 0.00 | 55 | 1011.7 |
| 20260504042948 | 8 | 227 | 0.0 | 0.0 | 0.00 | 0.00 | 0.00 | 56 | 1011.8 |
| 20260504042943 | 8 | 227 | 0.0 | 0.0 | 0.00 | 0.00 | 0.00 | 56 | 1011.8 |
| 20260504042939 | 8 | 227 | 0.0 | 0.0 | 0.00 | 0.00 | 0.00 | 56 | 1011.8 |
| 20260504042620 | 8 | 227 | 0.0 | 0.0 | 0.00 | 0.00 | 0.00 | 56 | 1011.8 |
| 20260504042550 | 8 | 227 | 0.0 | 0.0 | 0.00 | 0.00 | 0.00 | 55 | 1011.7 |
| 20260504042546 | 8 | 227 | 0.0 | 0.0 | 0.00 | 0.00 | 0.00 | 56 | 1011.7 |
| 20260504042540 | 8 | 227 | 0.0 | 0.0 | 0.00 | 0.00 | 0.00 | 56 | 1011.8 |
| 20260504042533 | 8 | 227 | 0.0 | 0.0 | 0.00 | 0.00 | 0.00 | 56 | 1011.7 |
| 20260504042520 | 8 | 227 | 0.0 | 0.0 | 0.00 | 0.00 | 0.00 | 56 | 1011.7 |
| 20260504042215 | 8 | 227 | 0.0 | 0.0 | 0.00 | 0.00 | 0.00 | 56 | 1011.7 |
| 20260504042114 | 8 | 227 | 0.0 | 0.0 | 0.00 | 0.00 | 0.00 | 55 | 1011.6 |
| 20260504042020 | 8 | 227 | 0.0 | 0.0 | 0.00 | 0.00 | 0.00 | 55 | 1011.7 |
| 20260504042005 | 8 | 227 | 0.0 | 0.0 | 0.00 | 0.00 | 0.00 | 55 | 1011.7 |
| 20260504041913 | 8 | 227 | 0.0 | 0.0 | 0.00 | 0.00 | 0.00 | 54 | 1011.7 |
| 20260504041813 | 8 | 227 | 0.0 | 0.0 | 0.00 | 0.00 | 0.00 | 54 | 1011.6 |
| 20260504041712 | 8 | 227 | 0.0 | 0.0 | 0.00 | 0.00 | 0.00 | 53 | 1011.6 |
| 20260504041612 | 8 | 227 | 0.0 | 0.0 | 0.00 | 0.00 | 0.00 | 53 | 1011.6 |
| 20260504041529 | 8 | 227 | 0.0 | 0.0 | 0.00 | 0.00 | 0.00 | 54 | 1011.6 |
| 20260504041520 | 8 | 227 | 0.0 | 0.0 | 0.00 | 0.00 | 0.00 | 53 | 1011.6 |
| 20260504041518 | 8 | 227 | 0.0 | 0.0 | 0.00 | 0.00 | 0.00 | 53 | 1011.6 |
| 20260504041310 | 8 | 227 | 0.0 | 0.0 | 0.00 | 0.00 | 0.00 | 53 | 1011.6 |
| 20260504041210 | 8 | 227 | 0.0 | 0.0 | 0.00 | 0.00 | 0.00 | 53 | 1011.5 |
| 20260504041109 | 9 | 227 | 0.0 | 0.0 | 0.00 | 0.00 | 0.00 | 53 | 1011.5 |
| 20260504041020 | 9 | 227 | 0.0 | 0.0 | 0.00 | 0.00 | 0.00 | 53 | 1011.5 |
| 20260504041004 | 9 | 227 | 0.0 | 0.0 | 0.00 | 0.00 | 0.00 | 53 | 1011.5 |
| 20260504040907 | 9 | 227 | 0.0 | 0.0 | 0.00 | 0.00 | 0.00 | 54 | 1011.5 |
| 20260504040807 | 9 | 227 | 0.0 | 0.0 | 0.00 | 0.00 | 0.00 | 54 | 1011.5 |
| 20260504040707 | 9 | 227 | 0.0 | 0.0 | 0.00 | 0.00 | 0.00 | 53 | 1011.5 |
| 20260504040605 | 9 | 227 | 0.0 | 0.0 | 0.00 | 0.00 | 0.00 | 53 | 1011.5 |
| 20260504040520 | 9 | 227 | 0.0 | 0.0 | 0.00 | 0.00 | 0.00 | 53 | 1011.5 |
| 20260504040506 | 9 | 227 | 0.0 | 0.0 | 0.00 | 0.00 | 0.00 | 53 | 1011.5 |
| 20260504040405 | 9 | 227 | 0.0 | 0.0 | 0.00 | 0.00 | 0.00 | 54 | 1011.6 |
| 20260504040304 | 9 | 227 | 0.0 | 0.0 | 0.00 | 0.00 | 0.00 | 53 | 1011.6 |
| 20260504040204 | 9 | 227 | 0.0 | 0.0 | 0.00 | 0.00 | 0.00 | 53 | 1011.5 |
| 20260504040103 | 9 | 227 | 0.0 | 0.0 | 0.00 | 0.00 | 0.00 | 53 | 1011.6 |
| 20260504040020 | 9 | 227 | 0.0 | 0.0 | 0.00 | 0.00 | 0.00 | 53 | 1011.6 |
| 20260504040007 | 9 | 227 | 0.0 | 0.0 | 0.00 | 0.00 | 0.00 | 53 | 1011.6 |
| 20260504040001 | 9 | 227 | 0.0 | 0.0 | 0.00 | 0.00 | 0.00 | 53 | 1011.6 |
| 20260504035902 | 9 | 227 | 0.0 | 0.0 | 0.00 | 0.00 | 0.00 | 53 | 1011.5 |
| 20260504035818 | 9 | 227 | 0.0 | 0.0 | 0.00 | 0.00 | 0.00 | 53 | 1011.6 |
| 20260504035814 | 9 | 227 | 0.0 | 0.0 | 0.00 | 0.00 | 0.00 | 54 | 1011.4 |
| 20260504035810 | 9 | 227 | 0.0 | 0.0 | 0.00 | 0.00 | 0.00 | 53 | 1011.6 |
| 20260504035614 | 9 | 227 | 0.0 | 0.0 | 0.00 | 0.00 | 0.00 | 53 | 1011.5 |
| 20260504035520 | 9 | 227 | 0.0 | 0.0 | 0.00 | 0.00 | 0.00 | 54 | 1011.4 |
| 20260504035459 | 9 | 227 | 0.0 | 0.0 | 0.00 | 0.00 | 0.00 | 54 | 1011.4 |
| 20260504035359 | 9 | 227 | 0.0 | 0.0 | 0.00 | 0.00 | 0.00 | 54 | 1011.4 |
| 20260504035258 | 9 | 227 | 0.0 | 0.0 | 0.00 | 0.00 | 0.00 | 54 | 1011.3 |
| 20260504035157 | 9 | 227 | 0.0 | 0.0 | 0.00 | 0.00 | 0.00 | 55 | 1011.4 |
| 20260504035057 | 9 | 227 | 0.0 | 0.0 | 0.00 | 0.00 | 0.00 | 54 | 1011.4 |
| 20260504035020 | 9 | 227 | 0.0 | 0.0 | 0.00 | 0.00 | 0.00 | 54 | 1011.4 |
| 20260504034956 | 9 | 227 | 0.0 | 0.0 | 0.00 | 0.00 | 0.00 | 54 | 1011.4 |
| 20260504034856 | 9 | 227 | 0.0 | 0.0 | 0.00 | 0.00 | 0.00 | 54 | 1011.4 |
| 20260504034755 | 9 | 227 | 0.0 | 0.0 | 0.00 | 0.00 | 0.00 | 54 | 1011.4 |
| 20260504034654 | 9 | 227 | 0.0 | 0.0 | 0.00 | 0.00 | 0.00 | 53 | 1011.4 |
| 20260504034554 | 9 | 227 | 0.0 | 0.0 | 0.00 | 0.00 | 0.00 | 53 | 1011.4 |
| 20260504034520 | 9 | 227 | 0.0 | 0.0 | 0.00 | 0.00 | 0.00 | 53 | 1011.4 |
| 20260504034453 | 9 | 227 | 0.0 | 0.0 | 0.00 | 0.00 | 0.00 | 53 | 1011.4 |
| 20260504034353 | 9 | 227 | 0.0 | 0.0 | 0.00 | 0.00 | 0.00 | 53 | 1011.4 |
| 20260504034252 | 9 | 227 | 0.0 | 0.0 | 0.00 | 0.00 | 0.00 | 53 | 1011.4 |
| 20260504034151 | 9 | 227 | 0.0 | 0.0 | 0.00 | 0.00 | 0.00 | 53 | 1011.4 |
| 20260504034051 | 9 | 227 | 0.0 | 0.0 | 0.00 | 0.00 | 0.00 | 53 | 1011.3 |
| 20260504034020 | 9 | 227 | 0.0 | 0.0 | 0.00 | 0.00 | 0.00 | 53 | 1011.3 |
| 20260504033950 | 9 | 227 | 0.0 | 0.0 | 0.00 | 0.00 | 0.00 | 53 | 1011.3 |
| 20260504033849 | 9 | 227 | 0.0 | 0.0 | 0.00 | 0.00 | 0.00 | 53 | 1011.3 |
| 20260504033821 | 9 | 227 | 0.0 | 0.0 | 0.00 | 0.00 | 0.00 | 54 | 1011.3 |
| 20260504033750 | 9 | 227 | 0.0 | 0.0 | 0.00 | 0.00 | 0.00 | 53 | 1011.4 |
| 20260504033718 | 9 | 227 | 0.0 | 0.0 | 0.00 | 0.00 | 0.00 | 54 | 1011.3 |
| 20260504033712 | 9 | 227 | 0.0 | 0.0 | 0.00 | 0.00 | 0.00 | 53 | 1011.3 |
| 20260504033703 | 9 | 227 | 0.0 | 0.0 | 0.00 | 0.00 | 0.00 | 53 | 1011.3 |
| 20260504033520 | 9 | 227 | 0.0 | 0.0 | 0.00 | 0.00 | 0.00 | 54 | 1011.3 |
| 20260504033348 | 9 | 227 | 0.0 | 0.0 | 0.00 | 0.00 | 0.00 | 54 | 1011.3 |
| 20260504033248 | 9 | 227 | 0.0 | 0.0 | 0.00 | 0.00 | 0.00 | 55 | 1011.3 |
| 20260504033225 | 9 | 227 | 0.0 | 0.0 | 0.00 | 0.00 | 0.00 | 55 | 1011.3 |
| 20260504033148 | 9 | 227 | 0.0 | 0.0 | 0.00 | 0.00 | 0.00 | 55 | 1011.3 |
| 20260504033107 | 9 | 227 | 0.0 | 0.0 | 0.00 | 0.00 | 0.00 | 55 | 1011.3 |
| 20260504033020 | 9 | 227 | 0.0 | 0.0 | 0.00 | 0.00 | 0.00 | 55 | 1011.3 |
| 20260504032947 | 9 | 227 | 0.0 | 0.0 | 0.00 | 0.00 | 0.00 | 55 | 1011.3 |
| 20260504032845 | 9 | 227 | 0.0 | 0.0 | 0.00 | 0.00 | 0.00 | 55 | 1011.3 |
| 20260504032744 | 9 | 227 | 0.0 | 0.0 | 0.00 | 0.00 | 0.00 | 54 | 1011.3 |
| 20260504032644 | 9 | 227 | 0.0 | 0.0 | 0.00 | 0.00 | 0.00 | 54 | 1011.3 |
| 20260504032543 | 9 | 227 | 0.0 | 0.0 | 0.00 | 0.00 | 0.00 | 54 | 1011.3 |
| 20260504032520 | 9 | 227 | 0.0 | 0.0 | 0.00 | 0.00 | 0.00 | 54 | 1011.3 |
| 20260504032443 | 9 | 227 | 0.0 | 0.0 | 0.00 | 0.00 | 0.00 | 54 | 1011.3 |
| 20260504032343 | 9 | 227 | 0.0 | 0.0 | 0.00 | 0.00 | 0.00 | 54 | 1011.3 |
| 20260504032242 | 9 | 227 | 0.0 | 0.0 | 0.00 | 0.00 | 0.00 | 55 | 1011.3 |
| 20260504032142 | 9 | 227 | 0.0 | 0.0 | 0.00 | 0.00 | 0.00 | 55 | 1011.3 |
| 20260504032056 | 9 | 227 | 0.0 | 0.0 | 0.00 | 0.00 | 0.00 | 55 | 1011.3 |
| 20260504032046 | 9 | 227 | 0.0 | 0.0 | 0.00 | 0.00 | 0.00 | 56 | 1011.3 |
| 20260504032020 | 9 | 227 | 0.0 | 0.0 | 0.00 | 0.00 | 0.00 | 55 | 1011.3 |
| 20260504031841 | 9 | 227 | 0.0 | 0.0 | 0.00 | 0.00 | 0.00 | 57 | 1011.2 |
| 20260504031818 | 9 | 227 | 0.0 | 0.0 | 0.00 | 0.00 | 0.00 | 56 | 1011.3 |